Sigfox identifier Datetime Temperature Humidity SNR
003B5CE8 2019-04-12 12:39:39 21 17 20.8
003B5CE8 2019-04-12 12:07:23 20.9 17 21
003B5CE8 2019-04-12 11:35:03 21 18 21.1
003B5CE8 2019-04-12 11:02:48 21 18 21.3
003B5CE8 2019-04-12 09:58:12 20.9 18 21.4
003B5CE8 2019-04-12 08:53:37 20.8 18 21.3
003B5CE8 2019-04-12 08:21:21 20.8 18 21.3
003B5CE8 2019-04-12 07:49:04 20.8 18 21.4
003B5CE8 2019-04-12 07:16:49 20.8 18 21.3
003B5CE8 2019-04-12 06:44:30 20.8 18 21.1
003B5CE8 2019-04-12 06:12:13 20.8 18 21
003B5CE8 2019-04-12 05:39:55 20.8 18 20.9
003B5CE8 2019-04-12 05:07:37 20.9 18 20.7
003B5CE8 2019-04-12 04:35:19 20.9 18 20.6
003B5CE8 2019-04-12 04:03:04 20.9 18 20.4
003B5CE8 2019-04-12 03:30:02 20.9 18 20.4
003B5CE8 2019-04-12 02:57:45 21 18 20.3
003B5CE8 2019-04-12 02:25:27 21 19 20.3
003B5CE8 2019-04-12 01:53:11 21 18 20.1
003B5CE8 2019-04-12 01:20:53 21.1 18 19.9
003B5CE8 2019-04-12 00:48:36 21.1 19 19.7
003B5CE8 2019-04-12 00:16:18 21.2 18 19.5
003B5CE8 2019-04-11 23:44:01 21.3 18 19.3
003B5CE8 2019-04-11 23:11:43 21.4 18 19.1
003B5CE8 2019-04-11 22:39:25 21.4 18 18.7
003B5CE8 2019-04-11 22:07:07 21.4 18 18.4
003B5CE8 2019-04-11 21:34:50 21.4 18 20
003B5CE8 2019-04-11 21:02:32 21.4 18 19.8
003B5CE8 2019-04-11 20:30:15 21.3 18 19.4
003B5CE8 2019-04-11 19:58:00 21.3 17 19.1
003B5CE8 2019-04-11 19:25:41 21.2 17 19
003B5CE8 2019-04-11 18:53:23 21.2 17 18.6
003B5CE8 2019-04-11 18:21:06 21.1 17 18.4
003B5CE8 2019-04-11 17:48:49 21.1 17 18.2
003B5CE8 2019-04-11 17:16:31 21.2 17 18.1
003B5CE8 2019-04-11 16:44:15 21.2 18 18.1
003B5CE8 2019-04-11 16:11:57 21.2 18 18.1
003B5CE8 2019-04-11 15:39:43 21.1 19 18.1
003B5CE8 2019-04-11 15:07:23 21 18 18.1
003B5CE8 2019-04-11 14:02:50 20.9 18 18
003B5CE8 2019-04-11 13:30:31 20.8 18 18
003B5CE8 2019-04-11 12:58:12 20.7 18 18
003B5CE8 2019-04-11 12:25:56 20.8 18 18
003B5CE8 2019-04-11 11:53:38 20.8 18 18
003B5CE8 2019-04-11 11:21:20 20.8 18 18
003B5CE8 2019-04-11 10:49:04 20.7 18 17.9
003B5CE8 2019-04-11 10:16:45 20.7 18 17.8
003B5CE8 2019-04-11 09:44:27 20.7 18 17.7
003B5CE8 2019-04-11 09:12:10 20.7 18 17.7
003B5CE8 2019-04-11 08:39:49 20.7 18 17.7
003B5CE8 2019-04-11 07:35:15 20.7 18 18
003B5CE8 2019-04-11 06:30:39 20.7 19 13.9
003B5CE8 2019-04-11 05:58:22 20.7 19 13.8
003B5CE8 2019-04-11 05:26:04 20.7 19 13.7
003B5CE8 2019-04-11 04:53:47 20.7 19 13.3
003B5CE8 2019-04-11 04:21:31 20.7 19 14
003B5CE8 2019-04-11 03:49:14 20.7 19 14.3
003B5CE8 2019-04-11 03:16:55 20.8 19 14.2
003B5CE8 2019-04-11 02:44:39 20.8 19 13.9
003B5CE8 2019-04-11 02:12:21 20.8 19 13.8
003B5CE8 2019-04-11 01:40:05 20.8 19 14.6
003B5CE8 2019-04-11 01:07:47 20.9 19 14.6
003B5CE8 2019-04-11 00:34:46 20.9 19 14.7
003B5CE8 2019-04-11 00:02:27 20.9 19 14.8
003B5CE8 2019-04-10 23:30:10 20.9 19 14.8
003B5CE8 2019-04-10 22:57:52 20.9 19 14.9
003B5CE8 2019-04-10 22:25:35 20.9 19 15.6
003B5CE8 2019-04-10 21:53:20 20.9 19 15.6
003B5CE8 2019-04-10 21:20:58 20.9 19 15.8
003B5CE8 2019-04-10 20:16:22 20.8 19 16.4
003B5CE8 2019-04-10 19:44:04 20.8 19 16.6
003B5CE8 2019-04-10 19:11:45 20.7 19 17
003B5CE8 2019-04-10 18:39:28 20.7 19 17.2
003B5CE8 2019-04-10 18:07:10 20.7 19 17.4
003B5CE8 2019-04-10 17:34:53 20.7 19 17.7
003B5CE8 2019-04-10 17:02:36 20.7 19 17.5
003B5CE8 2019-04-10 16:30:19 20.7 19 17.9
003B5CE8 2019-04-10 15:25:45 20.7 20 18
003B5CE8 2019-04-10 14:53:30 20.8 20 18.4
003B5CE8 2019-04-10 14:21:10 20.8 20 18.3
003B5CE8 2019-04-10 13:48:53 20.8 20 18.4
003B5CE8 2019-04-10 13:16:38 20.8 21 18.5
003B5CE8 2019-04-10 12:44:17 20.8 21 18.5
003B5CE8 2019-04-10 12:12:00 20.7 21 18.9
003B5CE8 2019-04-10 11:07:24 20.7 21 19
003B5CE8 2019-04-10 10:35:06 20.7 21 19
003B5CE8 2019-04-10 10:02:49 20.7 22 19.3
003B5CE8 2019-04-10 09:30:33 20.6 22 19.4
003B5CE8 2019-04-10 08:58:16 20.5 22 19.4
003B5CE8 2019-04-10 08:25:56 20.5 23 19.4
003B5CE8 2019-04-10 07:53:39 20.5 23 19.4
003B5CE8 2019-04-10 07:21:22 20.5 23 19.3
003B5CE8 2019-04-10 06:49:09 20.5 24 21
003B5CE8 2019-04-10 06:16:47 20.5 24 21
003B5CE8 2019-04-10 05:44:29 20.5 24 21.1
003B5CE8 2019-04-10 05:12:11 20.5 24 21
003B5CE8 2019-04-10 04:39:55 20.5 24 21
003B5CE8 2019-04-10 04:07:39 20.5 24 21.1
003B5CE8 2019-04-10 03:35:22 20.5 25 21
003B5CE8 2019-04-10 03:03:06 20.6 25 20.9
003B5CE8 2019-04-10 02:30:49 20.6 25 20.9
003B5CE8 2019-04-10 01:58:33 20.6 26 20.8
003B5CE8 2019-04-10 01:26:16 20.6 26 20.8
003B5CE8 2019-04-10 00:54:00 20.6 26 20.6
003B5CE8 2019-04-10 00:21:44 20.6 26 20.6
003B5CE8 2019-04-09 23:49:26 20.6 27 20.4
003B5CE8 2019-04-09 23:17:09 20.7 27 20.2
003B5CE8 2019-04-09 22:44:54 20.7 27 20.2
003B5CE8 2019-04-09 22:12:37 20.7 27 19.9
003B5CE8 2019-04-09 21:39:47 20.7 27 19.7
003B5CE8 2019-04-09 21:07:31 20.7 27 19.4
003B5CE8 2019-04-09 20:35:13 20.7 27 19.3
003B5CE8 2019-04-09 20:02:57 20.7 27 19.2
003B5CE8 2019-04-09 19:30:39 20.6 27 19.2
003B5CE8 2019-04-09 18:58:23 20.7 27 19.1
003B5CE8 2019-04-09 18:26:07 20.7 27 16.1
003B5CE8 2019-04-09 17:53:50 20.7 27 15.7
003B5CE8 2019-04-09 17:21:33 20.8 27 15
003B5CE8 2019-04-09 16:49:17 20.8 27 14.7
003B5CE8 2019-04-09 16:17:01 20.8 27 14.4
003B5CE8 2019-04-09 15:44:44 20.8 27 13.4
003B5CE8 2019-04-09 15:12:27 20.8 27 13.5
003B5CE8 2019-04-09 14:40:11 20.8 26 13
003B5CE8 2019-04-09 14:07:55 20.8 26 12.9
003B5CE8 2019-04-09 13:35:35 20.8 26 12.5
003B5CE8 2019-04-09 12:31:02 20.8 26 12.3
003B5CE8 2019-04-09 11:58:48 20.9 26 12.2
003B5CE8 2019-04-09 11:26:29 20.8 26 12
003B5CE8 2019-04-09 10:54:12 20.8 26 12
003B5CE8 2019-04-09 10:21:55 20.7 26 12
003B5CE8 2019-04-09 09:17:22 20.7 26 12.1
003B5CE8 2019-04-09 08:45:07 20.7 26 12.1
003B5CE8 2019-04-09 07:40:34 20.7 25 12.1
003B5CE8 2019-04-09 07:08:17 20.7 25 11.5
003B5CE8 2019-04-09 06:35:58 20.7 25 11.5
003B5CE8 2019-04-09 06:03:41 20.7 26 11.8
003B5CE8 2019-04-09 05:31:22 20.7 25 11.8
003B5CE8 2019-04-09 04:59:07 20.7 26 12.7
003B5CE8 2019-04-09 04:26:48 20.7 26 12.8
003B5CE8 2019-04-09 03:54:31 20.7 26 12.7
003B5CE8 2019-04-09 03:22:14 20.7 26 12.9
003B5CE8 2019-04-09 02:17:41 20.7 26 13
003B5CE8 2019-04-09 01:45:23 20.8 26 13.4
003B5CE8 2019-04-09 01:13:05 20.8 26 13.3
003B5CE8 2019-04-09 00:40:48 20.8 26 17.8
003B5CE8 2019-04-09 00:08:31 20.8 26 17.8
003B5CE8 2019-04-08 23:36:13 20.8 26 20
003B5CE8 2019-04-08 23:03:56 20.8 26 20
003B5CE8 2019-04-08 22:31:42 20.8 26 20
003B5CE8 2019-04-08 21:59:26 20.9 26 20
003B5CE8 2019-04-08 21:27:07 20.9 26 20
003B5CE8 2019-04-08 20:22:36 20.9 26 20
003B5CE8 2019-04-08 19:17:59 20.8 27 20
003B5CE8 2019-04-08 18:12:46 20.8 27 20
003B5CE8 2019-04-08 17:08:09 20.8 27 20
003B5CE8 2019-04-08 16:35:55 20.9 27 20
003B5CE8 2019-04-08 16:03:36 20.9 27 20
003B5CE8 2019-04-08 14:59:00 20.9 27 20
003B5CE8 2019-04-08 13:54:26 21 26 21.4
003B5CE8 2019-04-08 13:22:10 21 27 21.4
003B5CE8 2019-04-08 12:49:52 20.8 26 21.4
003B5CE8 2019-04-08 11:45:18 20.7 25 21.3
003B5CE8 2019-04-08 11:13:00 20.6 25 21.4
003B5CE8 2019-04-08 10:40:44 20.6 25 21.3
003B5CE8 2019-04-08 09:36:08 20.5 25 21.3
003B5CE8 2019-04-08 09:03:53 20.4 24 21.3
003B5CE8 2019-04-08 08:31:33 20.4 24 21.3
003B5CE8 2019-04-08 07:59:16 20.3 24 21.2
003B5CE8 2019-04-08 06:54:42 20.3 23 21.2
003B5CE8 2019-04-08 06:22:26 20.3 23 19.7
003B5CE8 2019-04-08 05:50:09 20.4 23 19.7
003B5CE8 2019-04-08 05:17:49 20.4 23 17.3
003B5CE8 2019-04-08 04:45:32 20.4 23 19.7
003B5CE8 2019-04-08 04:13:16 20.5 23 19.7
003B5CE8 2019-04-08 03:40:58 20.5 23 19.7
003B5CE8 2019-04-08 03:08:45 20.5 23 19.7
003B5CE8 2019-04-08 02:36:28 20.5 23 19.7
003B5CE8 2019-04-08 02:04:11 20.5 23 19.7
003B5CE8 2019-04-08 01:31:52 20.5 23 19.7
003B5CE8 2019-04-08 00:59:36 20.6 23 19.6
003B5CE8 2019-04-08 00:27:21 20.5 23 19.6
003B5CE8 2019-04-07 23:55:06 20.6 23 19.6
003B5CE8 2019-04-07 23:22:47 20.6 23 19.6
003B5CE8 2019-04-07 22:50:34 20.6 23 17.2
003B5CE8 2019-04-07 22:18:15 20.7 22 17.2
003B5CE8 2019-04-07 21:13:41 20.9 22 17.1
003B5CE8 2019-04-07 20:41:26 20.9 22 17.1
003B5CE8 2019-04-07 20:09:06 20.9 22 17.1
003B5CE8 2019-04-07 19:36:53 21 22 17
003B5CE8 2019-04-07 19:04:39 21 22 17
003B5CE8 2019-04-07 18:32:21 20.9 22 17
003B5CE8 2019-04-07 18:00:04 21 22 17.1
003B5CE8 2019-04-07 17:27:46 20.9 22 17.1
003B5CE8 2019-04-07 16:55:29 20.9 22 17.2
003B5CE8 2019-04-07 16:23:13 20.8 22 17.2
003B5CE8 2019-04-07 15:50:27 20.7 22 17.2
003B5CE8 2019-04-07 15:18:06 20.6 22 11.3
003B5CE8 2019-04-07 14:45:49 20.5 22 11.3
003B5CE8 2019-04-07 14:13:33 20.5 22 11.3
003B5CE8 2019-04-07 13:41:16 20.5 22 11.4
003B5CE8 2019-04-07 13:08:58 20.5 22 11.6
003B5CE8 2019-04-07 12:36:42 20.5 22 11.7
003B5CE8 2019-04-07 12:04:26 20.5 22 11.9
003B5CE8 2019-04-07 11:32:06 20.4 22 11.8
003B5CE8 2019-04-07 10:59:50 20.4 21 11.8
003B5CE8 2019-04-07 10:27:35 20.4 21 11.9
003B5CE8 2019-04-07 09:23:02 20.4 21 11.8
003B5CE8 2019-04-07 08:50:43 20.4 21 11.8
003B5CE8 2019-04-07 08:18:27 20.5 21 11.9
003B5CE8 2019-04-07 07:46:10 20.5 21 12.4
003B5CE8 2019-04-07 07:13:53 20.5 21 12.4
003B5CE8 2019-04-07 06:41:36 20.5 21 12.6
003B5CE8 2019-04-07 06:09:20 20.6 21 12.7
003B5CE8 2019-04-07 05:37:03 20.6 21 12.7
003B5CE8 2019-04-07 05:04:46 20.7 21 12.7
003B5CE8 2019-04-07 04:32:29 20.7 21 12.6
003B5CE8 2019-04-07 04:00:15 20.7 21 12.6
003B5CE8 2019-04-07 03:27:56 20.7 21 13
003B5CE8 2019-04-07 02:55:41 20.8 21 13
003B5CE8 2019-04-07 02:23:26 20.8 21 13.1
003B5CE8 2019-04-07 01:51:11 20.9 21 13.1
003B5CE8 2019-04-07 01:18:51 20.9 21 13
003B5CE8 2019-04-07 00:46:34 20.9 21 12.9
003B5CE8 2019-04-07 00:14:20 21 21 12.8
003B5CE8 2019-04-06 23:42:02 21.1 21 12.7
003B5CE8 2019-04-06 23:09:45 21.1 21 13.1
003B5CE8 2019-04-06 22:37:28 21.2 21 12.9
003B5CE8 2019-04-06 22:05:11 21.2 21 12.9
003B5CE8 2019-04-06 21:32:57 21.2 21 13
003B5CE8 2019-04-06 21:00:36 21.2 21 13.1
003B5CE8 2019-04-06 20:28:20 21.3 21 13
003B5CE8 2019-04-06 19:56:02 21.3 21 12.9
003B5CE8 2019-04-06 19:23:50 21.3 21 12.7
003B5CE8 2019-04-06 18:51:33 21.3 21 12.8
003B5CE8 2019-04-06 18:19:15 21.3 21 12.8
003B5CE8 2019-04-06 17:46:56 21.3 21 12.8
003B5CE8 2019-04-06 17:14:41 21.2 21 12.7
003B5CE8 2019-04-06 16:42:21 21.1 21 12.5
003B5CE8 2019-04-06 16:10:06 21 21 12.3
003B5CE8 2019-04-06 15:37:46 20.8 21 12.3
003B5CE8 2019-04-06 14:33:14 20.6 21 12.4
003B5CE8 2019-04-06 14:00:56 20.6 21 12.5
003B5CE8 2019-04-06 13:28:39 20.6 21 11.9
003B5CE8 2019-04-06 12:55:47 20.6 21 11.8
003B5CE8 2019-04-06 12:23:27 20.5 21 11.8
003B5CE8 2019-04-06 11:51:14 20.5 21 12.1
003B5CE8 2019-04-06 11:18:55 20.5 21 12.1
003B5CE8 2019-04-06 10:46:36 20.5 21 12
003B5CE8 2019-04-06 09:42:02 20.5 21 12.1
003B5CE8 2019-04-06 09:09:47 20.5 21 12.2
003B5CE8 2019-04-06 08:37:29 20.6 20 11.7
003B5CE8 2019-04-06 08:05:10 20.6 20 11.8
003B5CE8 2019-04-06 07:32:53 20.6 20 12.1
003B5CE8 2019-04-06 07:00:36 20.6 20 12
003B5CE8 2019-04-06 06:28:19 20.7 20 11.7
003B5CE8 2019-04-06 05:56:02 20.7 20 11.8
003B5CE8 2019-04-06 05:23:46 20.8 20 12.2
003B5CE8 2019-04-06 04:51:29 20.8 20 12
003B5CE8 2019-04-06 04:19:12 20.8 20 13.1
003B5CE8 2019-04-06 03:46:56 20.9 20 13.2
003B5CE8 2019-04-06 03:14:38 21 20 13.2
003B5CE8 2019-04-06 02:42:19 21 20 13.2
003B5CE8 2019-04-06 02:10:02 21 20 13.4
003B5CE8 2019-04-06 01:37:45 21.1 20 13.3
003B5CE8 2019-04-06 01:05:31 21.2 20 13.1
003B5CE8 2019-04-06 00:33:14 21.2 20 13
003B5CE8 2019-04-06 00:00:57 21.3 20 13
003B5CE8 2019-04-05 23:28:40 21.5 20 12.9
003B5CE8 2019-04-05 22:56:26 21.5 20 12.8
003B5CE8 2019-04-05 22:24:12 21.6 19 12.5
003B5CE8 2019-04-05 21:51:51 21.7 19 12.5
003B5CE8 2019-04-05 21:19:33 21.8 19 12.5
003B5CE8 2019-04-05 20:47:17 21.9 19 12.4
003B5CE8 2019-04-05 20:14:59 21.9 19 12.3
003B5CE8 2019-04-05 19:42:46 21.9 19 12.4
003B5CE8 2019-04-05 19:10:25 21.9 19 12.3
003B5CE8 2019-04-05 18:38:08 21.6 19 12.1
003B5CE8 2019-04-05 18:05:50 21.7 19 12.1
003B5CE8 2019-04-05 17:01:18 21.7 20 12.1
003B5CE8 2019-04-05 15:24:25 21.5 21 12
003B5CE8 2019-04-05 14:52:05 21.4 22 11.8
003B5CE8 2019-04-05 14:19:50 21.3 22 11.5
003B5CE8 2019-04-05 13:47:31 21.2 22 11.4
003B5CE8 2019-04-05 13:15:14 21.2 22 9.5
003B5CE8 2019-04-05 12:10:38 21.2 22 9.1
003B5CE8 2019-04-05 11:38:21 21.2 23 9.3
003B5CE8 2019-04-05 11:06:06 21.2 22 9.7
003B5CE8 2019-04-05 10:33:48 21.1 22 16.8
003B5CE8 2019-04-05 10:00:51 21.1 21 19.4
003B5CE8 2019-04-05 09:28:30 21 20 19.6
003B5CE8 2019-04-05 08:56:13 21 20 21.2
003B5CE8 2019-04-05 07:51:41 21 19 21.2
003B5CE8 2019-04-05 07:19:25 21 20 21.2
003B5CE8 2019-04-05 06:47:04 21 20 21.2
003B5CE8 2019-04-05 05:42:31 21.1 20 21.3
003B5CE8 2019-04-05 05:10:11 21.1 20 21.3
003B5CE8 2019-04-05 04:05:36 21.2 20 21.3
003B5CE8 2019-04-05 03:33:19 21.2 20 21.3
003B5CE8 2019-04-05 03:01:05 21.2 20 21.4
003B5CE8 2019-04-05 01:56:28 21.3 19 21.4
003B5CE8 2019-04-05 01:24:12 21.3 19 21.4
003B5CE8 2019-04-05 00:51:56 21.3 19 21.4
003B5CE8 2019-04-04 23:47:21 21.5 19 21.4
003B5CE8 2019-04-04 23:15:05 21.5 19 21.4
003B5CE8 2019-04-04 22:42:50 21.5 19 21.4
003B5CE8 2019-04-04 21:05:59 21.6 18 21.4
003B5CE8 2019-04-04 20:01:19 21.5 18 21.4
003B5CE8 2019-04-04 19:29:00 21.5 18 21.4
003B5CE8 2019-04-04 18:24:24 21.5 18 21.4
003B5CE8 2019-04-04 17:52:11 21.5 18 21.6
003B5CE8 2019-04-04 16:47:32 21.5 19 21.5
003B5CE8 2019-04-04 15:42:58 21.4 20 20.2
003B5CE8 2019-04-04 15:10:43 21.3 20 18.1
003B5CE8 2019-04-04 14:38:28 21.2 20 17.9
003B5CE8 2019-04-04 14:06:07 21.2 20 13.4
003B5CE8 2019-04-04 13:33:51 21.1 20 13.5
003B5CE8 2019-04-04 13:01:37 21.1 20 13.4
003B5CE8 2019-04-04 11:57:02 21 20 13.5
003B5CE8 2019-04-04 11:24:44 21 20 13
003B5CE8 2019-04-04 10:52:27 21 20 13.5
003B5CE8 2019-04-04 10:20:09 20.9 20 13.5
003B5CE8 2019-04-04 09:47:56 20.9 20 13.4
003B5CE8 2019-04-04 08:43:18 20.9 20 13.7
003B5CE8 2019-04-04 08:11:04 20.9 20 13.3
003B5CE8 2019-04-04 07:38:42 21 20 13.3
003B5CE8 2019-04-04 07:05:43 21 20 13.5
003B5CE8 2019-04-04 06:33:26 21 20 13.8
003B5CE8 2019-04-04 06:01:08 21.1 20 13.8
003B5CE8 2019-04-04 05:28:50 21.1 20 14.3
003B5CE8 2019-04-04 04:56:35 21.1 20 14.2
003B5CE8 2019-04-04 04:24:15 21.1 20 14.3
003B5CE8 2019-04-04 03:51:58 21.2 20 14.3
003B5CE8 2019-04-04 03:19:40 21.2 20 15
003B5CE8 2019-04-04 02:47:23 21.2 20 15.1
003B5CE8 2019-04-04 02:15:06 21.3 20 14.5
003B5CE8 2019-04-04 01:42:52 21.3 20 14.5
003B5CE8 2019-04-04 01:10:35 21.3 20 14.3
003B5CE8 2019-04-04 00:38:22 21.4 20 14.3
003B5CE8 2019-04-04 00:06:03 21.5 20 14.3
003B5CE8 2019-04-03 23:33:47 21.5 20 14.3
003B5CE8 2019-04-03 23:01:30 21.6 20 14.3
003B5CE8 2019-04-03 22:29:11 21.6 19 14.7
003B5CE8 2019-04-03 21:56:58 21.6 19 15.5
003B5CE8 2019-04-03 21:24:37 21.7 19 15.3
003B5CE8 2019-04-03 20:52:22 21.7 19 15.6
003B5CE8 2019-04-03 20:20:03 21.7 19 15.7
003B5CE8 2019-04-03 19:47:49 21.7 19 15.6
003B5CE8 2019-04-03 19:15:29 21.7 19 15.6
003B5CE8 2019-04-03 18:43:13 21.6 19 16.4
003B5CE8 2019-04-03 18:10:57 21.7 19 16.4
003B5CE8 2019-04-03 17:38:40 21.8 20 16.2
003B5CE8 2019-04-03 17:06:24 21.9 21 16.4
003B5CE8 2019-04-03 16:34:10 21.8 21 16.9
003B5CE8 2019-04-03 16:01:50 21.7 21 17.4
003B5CE8 2019-04-03 15:29:33 21.5 21 17.4
003B5CE8 2019-04-03 14:57:15 21.4 21 17.8
003B5CE8 2019-04-03 14:24:58 21.3 21 17.8
003B5CE8 2019-04-03 13:52:41 21.2 21 18.1
003B5CE8 2019-04-03 13:20:24 21.1 21 18.4
003B5CE8 2019-04-03 12:48:07 21.1 21 18.4
003B5CE8 2019-04-03 12:15:50 21.1 21 18.5
003B5CE8 2019-04-03 11:43:35 21.1 21 18.5
003B5CE8 2019-04-03 11:11:19 21 21 18.5
003B5CE8 2019-04-03 10:39:04 21 21 18.8
003B5CE8 2019-04-03 10:06:43 21 21 19.1
003B5CE8 2019-04-03 09:34:27 20.9 20 19.2
003B5CE8 2019-04-03 09:02:10 20.8 20 19
003B5CE8 2019-04-03 08:29:54 20.8 20 18.7
003B5CE8 2019-04-03 07:57:37 20.8 20 19.2
003B5CE8 2019-04-03 07:25:21 20.8 20 20.8
003B5CE8 2019-04-03 06:53:05 20.8 20 20.8
003B5CE8 2019-04-03 06:20:47 20.8 20 20.8
003B5CE8 2019-04-03 05:48:31 20.8 20 20.9
003B5CE8 2019-04-03 05:16:14 20.8 20 20.7
003B5CE8 2019-04-03 04:43:57 20.9 20 20.8
003B5CE8 2019-04-03 04:11:04 20.9 20 20.7
003B5CE8 2019-04-03 03:38:48 20.9 20 21.7
003B5CE8 2019-04-03 03:06:32 20.9 20 21.7
003B5CE8 2019-04-03 02:34:14 21 19 21.7
003B5CE8 2019-04-03 02:01:57 21 19 21.6
003B5CE8 2019-04-03 01:29:41 21 19 21.4
003B5CE8 2019-04-03 00:57:24 21.1 19 21.2
003B5CE8 2019-04-03 00:25:08 21.1 19 22.3
003B5CE8 2019-04-02 23:52:54 21.1 19 22.3
003B5CE8 2019-04-02 23:20:35 21.2 19 22.3
003B5CE8 2019-04-02 22:48:18 21.3 19 22.3
003B5CE8 2019-04-02 22:16:04 21.3 18 22.3
003B5CE8 2019-04-02 21:43:45 21.4 18 22.1
003B5CE8 2019-04-02 21:11:28 21.3 18 22
003B5CE8 2019-04-02 20:39:11 21.4 18 22
003B5CE8 2019-04-02 20:06:54 21.4 18 22
003B5CE8 2019-04-02 19:34:37 21.4 18 22
003B5CE8 2019-04-02 19:02:20 21.4 18 22.8
003B5CE8 2019-04-02 18:30:04 21.4 18 21.8
003B5CE8 2019-04-02 17:57:46 21.4 18 21.8
003B5CE8 2019-04-02 17:25:30 21.5 19 21.8
003B5CE8 2019-04-02 16:53:12 21.5 19 21.7
003B5CE8 2019-04-02 16:20:55 21.6 20 21.7
003B5CE8 2019-04-02 15:48:37 21.5 22 21.8
003B5CE8 2019-04-02 14:44:02 21.1 23 21.8
003B5CE8 2019-04-02 14:11:45 21 23 21.8
003B5CE8 2019-04-02 13:39:27 20.8 23 20.6
003B5CE8 2019-04-02 13:07:09 20.8 23 20.4
003B5CE8 2019-04-02 12:34:52 20.8 23 20.5
003B5CE8 2019-04-02 12:02:34 20.8 23 20.5
003B5CE8 2019-04-02 11:30:16 20.8 23 20.5
003B5CE8 2019-04-02 10:57:59 20.8 23 20.4
003B5CE8 2019-04-02 10:25:42 20.8 22 18.6
003B5CE8 2019-04-02 09:53:29 20.7 22 18.6
003B5CE8 2019-04-02 09:21:10 20.7 21 18.7
003B5CE8 2019-04-02 08:48:53 20.7 21 18.7
003B5CE8 2019-04-02 08:16:37 20.7 20 18.7
003B5CE8 2019-04-02 07:44:18 20.7 20 18.8
003B5CE8 2019-04-02 07:12:01 20.7 20 18.8
003B5CE8 2019-04-02 06:39:44 20.7 20 19
003B5CE8 2019-04-02 06:07:27 20.7 20 19.1
003B5CE8 2019-04-02 05:35:10 20.7 20 19.1
003B5CE8 2019-04-02 05:02:53 20.7 19 16.2
003B5CE8 2019-04-02 04:30:36 20.7 19 16.1
003B5CE8 2019-04-02 03:58:19 20.8 19 16.3
003B5CE8 2019-04-02 03:26:03 20.8 19 16.2
003B5CE8 2019-04-02 02:53:47 20.8 19 16.2
003B5CE8 2019-04-02 02:21:31 20.8 19 16
003B5CE8 2019-04-02 01:49:13 20.9 18 15.6
003B5CE8 2019-04-02 01:16:27 20.9 18 16
003B5CE8 2019-04-02 00:44:10 21 18 16
003B5CE8 2019-04-02 00:11:54 21 18 15.9
003B5CE8 2019-04-01 23:39:34 21 17 15.7
003B5CE8 2019-04-01 23:07:16 21.1 17 15.7
003B5CE8 2019-04-01 22:34:58 21.2 17 15.6
003B5CE8 2019-04-01 22:02:42 21.2 17 15.7
003B5CE8 2019-04-01 21:30:25 21.2 17 18.8
003B5CE8 2019-04-01 20:58:08 21.2 17 19
003B5CE8 2019-04-01 20:25:52 21.3 16 18.8
003B5CE8 2019-04-01 19:53:35 21.2 16 18.9
003B5CE8 2019-04-01 19:21:18 21.2 16 18.9
003B5CE8 2019-04-01 18:49:01 21.2 16 18.8
003B5CE8 2019-04-01 18:16:42 21.2 16 18.7
003B5CE8 2019-04-01 17:44:25 21.3 16 18.5
003B5CE8 2019-04-01 17:12:08 21.3 17 18.4
003B5CE8 2019-04-01 16:39:50 21.2 17 18.4
003B5CE8 2019-04-01 16:07:37 21 17 18.5
003B5CE8 2019-04-01 15:35:15 20.9 18 18.5
003B5CE8 2019-04-01 15:02:59 20.7 18 18.3
003B5CE8 2019-04-01 14:30:39 20.6 19 20.5
003B5CE8 2019-04-01 13:58:24 20.6 19 20.5
003B5CE8 2019-04-01 13:26:05 20.5 20 20.4
003B5CE8 2019-04-01 12:53:49 20.5 20 20.4
003B5CE8 2019-04-01 12:21:31 20.5 21 20.6
003B5CE8 2019-04-01 11:49:11 20.5 21 20.6
003B5CE8 2019-04-01 11:16:54 20.5 21 20.6
003B5CE8 2019-04-01 10:44:36 20.5 22 20.6
003B5CE8 2019-04-01 10:12:21 20.5 22 20.7
003B5CE8 2019-04-01 09:40:01 20.5 22 21.9
003B5CE8 2019-04-01 09:07:43 20.5 22 20.7
003B5CE8 2019-04-01 08:35:26 20.5 22 20.6
003B5CE8 2019-04-01 08:03:07 20.4 22 20.6
003B5CE8 2019-04-01 07:30:50 20.5 23 21.9
003B5CE8 2019-04-01 06:58:34 20.5 23 22
003B5CE8 2019-04-01 06:26:17 20.5 23 22
003B5CE8 2019-04-01 05:53:59 20.5 23 22
003B5CE8 2019-04-01 05:21:43 20.5 23 22
003B5CE8 2019-04-01 04:49:26 20.5 23 22
003B5CE8 2019-04-01 04:17:10 20.5 23 22
003B5CE8 2019-04-01 03:44:54 20.5 23 22
003B5CE8 2019-04-01 03:12:37 20.5 23 22.1
003B5CE8 2019-04-01 02:40:20 20.5 23 22.1
003B5CE8 2019-04-01 02:08:03 20.5 23 21.9
003B5CE8 2019-04-01 01:35:45 20.5 24 20.7
003B5CE8 2019-04-01 01:03:28 20.6 24 20.7
003B5CE8 2019-04-01 00:31:10 20.6 24 20.8
003B5CE8 2019-03-31 23:58:53 20.6 24 20.8
003B5CE8 2019-03-31 23:26:35 20.6 25 20.8
003B5CE8 2019-03-31 22:54:17 20.7 25 20.6
003B5CE8 2019-03-31 22:21:27 20.7 25 20.6
003B5CE8 2019-03-31 21:49:10 20.8 26 20.6
003B5CE8 2019-03-31 21:16:53 20.8 26 20.5
003B5CE8 2019-03-31 20:44:36 20.9 27 19
003B5CE8 2019-03-31 20:12:19 20.9 27 18.9
003B5CE8 2019-03-31 19:40:02 20.9 27 19.2
003B5CE8 2019-03-31 19:07:43 20.9 27 19.2
003B5CE8 2019-03-31 18:35:24 20.8 28 16.4
003B5CE8 2019-03-31 18:03:06 20.7 28 19
003B5CE8 2019-03-31 17:30:49 20.7 28 19
003B5CE8 2019-03-31 16:58:32 20.6 28 19.4
003B5CE8 2019-03-31 16:26:17 20.6 28 19.4
003B5CE8 2019-03-31 15:53:58 20.6 28 19.4
003B5CE8 2019-03-31 15:21:40 20.6 28 19.4
003B5CE8 2019-03-31 14:49:23 20.6 28 19.3
003B5CE8 2019-03-31 14:17:05 20.6 28 19.1
003B5CE8 2019-03-31 13:44:48 20.6 28 19.2
003B5CE8 2019-03-31 13:12:31 20.6 28 19.1
003B5CE8 2019-03-31 12:40:14 20.6 28 19
003B5CE8 2019-03-31 12:07:55 20.6 28 19.1
003B5CE8 2019-03-31 11:35:37 20.6 28 19.1
003B5CE8 2019-03-31 11:03:20 20.6 28 19
003B5CE8 2019-03-31 10:31:02 20.6 28 19
003B5CE8 2019-03-31 09:58:44 20.5 28 19
003B5CE8 2019-03-31 09:26:26 20.5 28 19
003B5CE8 2019-03-31 08:54:08 20.5 28 19
003B5CE8 2019-03-31 08:21:51 20.6 28 19.2
003B5CE8 2019-03-31 07:49:34 20.6 28 19.2
003B5CE8 2019-03-31 07:17:17 20.6 28 19
003B5CE8 2019-03-31 06:44:59 20.6 28 19
003B5CE8 2019-03-31 06:12:42 20.6 28 18.7
003B5CE8 2019-03-31 05:40:26 20.6 28 20.5
003B5CE8 2019-03-31 05:08:09 20.6 28 20.5
003B5CE8 2019-03-31 04:35:52 20.6 28 18.7
003B5CE8 2019-03-31 04:03:36 20.6 28 18.7
003B5CE8 2019-03-31 02:31:18 20.6 28 18.3
003B5CE8 2019-03-31 01:59:00 20.6 28 18.2
003B5CE8 2019-03-31 01:26:43 20.6 28 18.2
003B5CE8 2019-03-31 00:54:27 20.6 28 18.3
003B5CE8 2019-03-31 00:22:09 20.7 28 18.3
003B5CE8 2019-03-30 23:49:53 20.7 28 18.3
003B5CE8 2019-03-30 23:17:35 20.7 27 18.3
003B5CE8 2019-03-30 22:45:19 20.7 27 18.4
003B5CE8 2019-03-30 22:13:01 20.7 27 18.4
003B5CE8 2019-03-30 21:40:43 20.8 27 18.6
003B5CE8 2019-03-30 21:08:25 20.8 27 18.6
003B5CE8 2019-03-30 20:36:08 20.8 27 18.8
003B5CE8 2019-03-30 20:03:50 20.8 27 18.8
003B5CE8 2019-03-30 19:31:33 20.9 27 18.8
003B5CE8 2019-03-30 18:59:16 20.9 27 18.8
003B5CE8 2019-03-30 18:26:24 21 27 18.6
003B5CE8 2019-03-30 17:54:08 21 27 18.7
003B5CE8 2019-03-30 17:21:51 21 27 20.5
003B5CE8 2019-03-30 16:49:33 21 27 20.5
003B5CE8 2019-03-30 16:17:15 21 27 20.5
003B5CE8 2019-03-30 15:44:56 21 27 18.7
003B5CE8 2019-03-30 15:12:40 21 27 19.1
003B5CE8 2019-03-30 14:40:21 20.9 27 19
003B5CE8 2019-03-30 14:08:02 20.9 27 20.8
003B5CE8 2019-03-30 13:35:45 20.9 27 20.7
003B5CE8 2019-03-30 13:03:28 20.8 28 20.7
003B5CE8 2019-03-30 12:31:11 20.8 28 20.8
003B5CE8 2019-03-30 11:58:52 20.8 28 20.8
003B5CE8 2019-03-30 11:26:32 20.7 28 20.9
003B5CE8 2019-03-30 10:54:14 20.7 27 20.8
003B5CE8 2019-03-30 10:21:55 20.7 27 20.8
003B5CE8 2019-03-30 09:49:37 20.7 27 20.9
003B5CE8 2019-03-30 09:17:19 20.7 27 22.1
003B5CE8 2019-03-30 08:45:00 20.7 27 22
003B5CE8 2019-03-30 08:12:43 20.6 27 22
003B5CE8 2019-03-30 07:40:25 20.6 27 22
003B5CE8 2019-03-30 07:08:07 20.7 28 22.2
003B5CE8 2019-03-30 06:35:50 20.7 28 22.2
003B5CE8 2019-03-30 06:03:35 20.7 28 22.3
003B5CE8 2019-03-30 05:31:14 20.7 28 22.3
003B5CE8 2019-03-30 04:58:56 20.7 28 22.3
003B5CE8 2019-03-30 04:26:38 20.7 28 22.5
003B5CE8 2019-03-30 03:54:19 20.7 28 21.4
003B5CE8 2019-03-30 03:22:01 20.8 28 21.4
003B5CE8 2019-03-30 02:49:44 20.7 28 21.4
003B5CE8 2019-03-30 02:17:27 20.8 28 21.4
003B5CE8 2019-03-30 01:45:10 20.8 28 21.2
003B5CE8 2019-03-30 01:12:53 20.8 28 21.2
003B5CE8 2019-03-30 00:40:36 20.8 28 21.2
003B5CE8 2019-03-30 00:08:17 20.9 28 21.2
003B5CE8 2019-03-29 23:36:00 20.9 29 21.2
003B5CE8 2019-03-29 23:03:42 21 29 21.1
003B5CE8 2019-03-29 22:31:25 21 29 21.1
003B5CE8 2019-03-29 21:59:06 21 29 21
003B5CE8 2019-03-29 21:26:48 21.1 29 21
003B5CE8 2019-03-29 20:54:31 21.1 29 21
003B5CE8 2019-03-29 20:22:13 21 29 20.9
003B5CE8 2019-03-29 19:49:55 21 29 19.2
003B5CE8 2019-03-29 19:17:38 21 29 19.2
003B5CE8 2019-03-29 18:45:20 21 29 19.3
003B5CE8 2019-03-29 18:13:03 21 29 19.1
003B5CE8 2019-03-29 17:40:45 21.1 29 19
003B5CE8 2019-03-29 17:08:27 21.1 29 19.1
003B5CE8 2019-03-29 16:36:09 21.1 29 18.8
003B5CE8 2019-03-29 16:03:52 21.1 29 18.8
003B5CE8 2019-03-29 15:30:53 21.1 29 19
003B5CE8 2019-03-29 14:58:36 21.1 28 18.6
003B5CE8 2019-03-29 14:26:22 21.1 28 18.5
003B5CE8 2019-03-29 13:54:02 21.1 29 18.7
003B5CE8 2019-03-29 13:21:46 21 28 18.8
003B5CE8 2019-03-29 12:49:28 20.9 28 18.8
003B5CE8 2019-03-29 12:17:11 20.9 28 18.7
003B5CE8 2019-03-29 11:12:38 20.9 28 18.7
003B5CE8 2019-03-29 10:40:21 21 28 15.7
003B5CE8 2019-03-29 10:08:04 20.9 28 15.9
003B5CE8 2019-03-29 09:35:47 20.9 27 15.9
003B5CE8 2019-03-29 09:03:32 20.8 26 16
003B5CE8 2019-03-29 08:31:16 20.8 26 19
003B5CE8 2019-03-29 07:58:55 20.7 26 19
003B5CE8 2019-03-29 07:26:38 20.7 25 19.2
003B5CE8 2019-03-29 06:54:22 20.7 25 19.5
003B5CE8 2019-03-29 06:22:04 20.7 25 19.5
003B5CE8 2019-03-29 05:49:47 20.7 25 19.5
003B5CE8 2019-03-29 05:17:34 20.7 25 19.7
003B5CE8 2019-03-29 04:45:13 20.8 25 19.8
003B5CE8 2019-03-29 04:12:56 20.8 25 19.9
003B5CE8 2019-03-29 03:40:41 20.8 25 20
003B5CE8 2019-03-29 03:08:27 20.9 25 19.9
003B5CE8 2019-03-29 02:36:09 20.9 25 21.3
003B5CE8 2019-03-29 02:03:55 21 25 21.5
003B5CE8 2019-03-29 01:31:38 21 25 21.5
003B5CE8 2019-03-29 00:59:18 21 25 21.8
003B5CE8 2019-03-29 00:27:02 21 25 21.8
003B5CE8 2019-03-28 23:54:49 21 25 21.8
003B5CE8 2019-03-28 23:22:27 21 25 22
003B5CE8 2019-03-28 22:50:10 21 25 22
003B5CE8 2019-03-28 22:17:53 21.1 25 22
003B5CE8 2019-03-28 21:45:36 21.1 25 22
003B5CE8 2019-03-28 21:13:20 21.1 25 22
003B5CE8 2019-03-28 20:41:04 21.2 25 22.2
003B5CE8 2019-03-28 20:08:48 21.1 25 22.2
003B5CE8 2019-03-28 19:36:31 21.1 25 22.3
003B5CE8 2019-03-28 19:04:15 21.1 25 21.1
003B5CE8 2019-03-28 18:32:00 21.1 25 21.3
003B5CE8 2019-03-28 17:59:43 21.2 24 21.2
003B5CE8 2019-03-28 17:27:25 21.2 24 21.1
003B5CE8 2019-03-28 16:55:08 21.2 25 21.2
003B5CE8 2019-03-28 16:22:52 21.2 24 21.2
003B5CE8 2019-03-28 15:50:34 21.1 24 21.1
003B5CE8 2019-03-28 14:46:01 21.1 24 21
003B5CE8 2019-03-28 14:13:45 21 23 21
003B5CE8 2019-03-28 13:41:28 21 23 20.9
003B5CE8 2019-03-28 13:09:11 21 23 20.9
003B5CE8 2019-03-28 12:36:13 20.9 22 19.5
003B5CE8 2019-03-28 12:04:00 20.9 22 19.4
003B5CE8 2019-03-28 11:31:40 20.9 22 19
003B5CE8 2019-03-28 10:59:23 20.9 22 19.1
003B5CE8 2019-03-28 10:27:06 20.9 22 19.2
003B5CE8 2019-03-28 09:54:49 20.8 21 19.1
003B5CE8 2019-03-28 09:22:33 20.8 21 19.1
003B5CE8 2019-03-28 08:50:18 20.8 20 19.3
003B5CE8 2019-03-28 08:18:00 20.8 20 19.5
003B5CE8 2019-03-28 07:45:43 20.7 20 19.4
003B5CE8 2019-03-28 07:13:26 20.7 20 19.1
003B5CE8 2019-03-28 06:41:09 20.7 20 19.1
003B5CE8 2019-03-28 06:08:52 20.7 20 18.9
003B5CE8 2019-03-28 05:36:36 20.7 20 19
003B5CE8 2019-03-28 05:04:20 20.7 20 19
003B5CE8 2019-03-28 04:32:03 20.7 19 18.9
003B5CE8 2019-03-28 03:59:47 20.7 19 18.8
003B5CE8 2019-03-28 03:27:30 20.7 19 18.6
003B5CE8 2019-03-28 02:55:14 20.7 19 18.7
003B5CE8 2019-03-28 02:22:57 20.8 19 18.6
003B5CE8 2019-03-28 01:50:40 20.8 19 20.5
003B5CE8 2019-03-28 01:18:23 20.8 18 21.8
003B5CE8 2019-03-28 00:46:06 20.8 18 21.8
003B5CE8 2019-03-28 00:13:50 20.9 18 22.7
003B5CE8 2019-03-27 23:41:33 20.9 17 22.7
003B5CE8 2019-03-27 23:09:18 20.9 17 22.5
003B5CE8 2019-03-27 22:37:01 20.9 17 22.4
003B5CE8 2019-03-27 22:04:47 20.9 17 22.4
003B5CE8 2019-03-27 21:32:29 21 16 22.3
003B5CE8 2019-03-27 21:00:14 21 16 22.4
003B5CE8 2019-03-27 20:27:55 21.1 16 22.5
003B5CE8 2019-03-27 19:55:39 21.1 16 22.7
003B5CE8 2019-03-27 19:23:24 21.1 16 22.7
003B5CE8 2019-03-27 18:51:07 21.1 16 22.7
003B5CE8 2019-03-27 18:18:48 21.2 16 22.8
003B5CE8 2019-03-27 17:46:31 21.2 16 22.9
003B5CE8 2019-03-27 17:14:15 21.3 16 23.2
003B5CE8 2019-03-27 16:41:58 21.3 16 23.2
003B5CE8 2019-03-27 16:09:40 21.4 16 23.2
003B5CE8 2019-03-27 15:37:24 21.4 16 23.3
003B5CE8 2019-03-27 15:05:07 21.3 16 23.5
003B5CE8 2019-03-27 14:32:51 21.1 16 23.6
003B5CE8 2019-03-27 14:00:34 21 16 23.7
003B5CE8 2019-03-27 13:28:17 20.9 16 23.7
003B5CE8 2019-03-27 12:56:03 20.9 16 23.6
003B5CE8 2019-03-27 12:23:44 20.8 15 22.9
003B5CE8 2019-03-27 11:51:27 20.8 15 21.9
003B5CE8 2019-03-27 11:19:10 20.7 15 21.9
003B5CE8 2019-03-27 10:46:54 20.7 15 20.6
003B5CE8 2019-03-27 10:14:38 20.7 15 20.7
003B5CE8 2019-03-27 09:41:51 20.6 15 20.7
003B5CE8 2019-03-27 09:09:35 20.6 14 20.7
003B5CE8 2019-03-27 08:37:19 20.6 14 20.7
003B5CE8 2019-03-27 08:05:02 20.6 14 20.6
003B5CE8 2019-03-27 07:32:46 20.6 14 20.4
003B5CE8 2019-03-27 07:00:30 20.6 14 20
003B5CE8 2019-03-27 06:28:13 20.6 14 19.9
003B5CE8 2019-03-27 05:55:55 20.6 14 20
003B5CE8 2019-03-27 05:23:39 20.6 14 20
003B5CE8 2019-03-27 04:51:23 20.6 14 19.9
003B5CE8 2019-03-27 04:19:05 20.6 14 19.4
003B5CE8 2019-03-27 03:46:48 20.6 14 19.3
003B5CE8 2019-03-27 03:14:31 20.7 14 19.2
003B5CE8 2019-03-27 02:42:15 20.7 14 18.7
003B5CE8 2019-03-27 02:09:58 20.7 14 18.3
003B5CE8 2019-03-27 01:37:41 20.7 14 18.1
003B5CE8 2019-03-27 01:05:25 20.8 14 18.1
003B5CE8 2019-03-27 00:33:09 20.8 14 18.1
003B5CE8 2019-03-27 00:00:55 20.9 14 18.1
003B5CE8 2019-03-26 23:28:36 20.9 14 17.9
003B5CE8 2019-03-26 22:56:19 20.9 14 20
003B5CE8 2019-03-26 22:24:02 21 14 20.3
003B5CE8 2019-03-26 21:51:44 21 13 20.2
003B5CE8 2019-03-26 21:19:27 21.1 13 20.4
003B5CE8 2019-03-26 20:47:09 21.1 13 20.6
003B5CE8 2019-03-26 20:14:53 21.2 13 20.8
003B5CE8 2019-03-26 19:42:35 21.2 13 20.9
003B5CE8 2019-03-26 19:10:18 21.2 13 21.1
003B5CE8 2019-03-26 18:38:02 21.2 13 21
003B5CE8 2019-03-26 18:05:45 21.2 13 21.1
003B5CE8 2019-03-26 17:33:27 21.3 13 21
003B5CE8 2019-03-26 17:01:10 21.4 14 21.2
003B5CE8 2019-03-26 16:28:52 21.4 14 21.2
003B5CE8 2019-03-26 15:56:35 21.4 14 21.1
003B5CE8 2019-03-26 15:24:18 21.3 14 21.2
003B5CE8 2019-03-26 14:52:00 21.1 14 21.3
003B5CE8 2019-03-26 14:19:44 21 15 21.6
003B5CE8 2019-03-26 13:47:27 20.8 15 21.6
003B5CE8 2019-03-26 13:15:10 20.8 15 21.6
003B5CE8 2019-03-26 12:42:54 20.6 15 21.9
003B5CE8 2019-03-26 12:10:36 20.6 15 21.9
003B5CE8 2019-03-26 11:38:20 20.5 16 21.9
003B5CE8 2019-03-26 11:06:03 20.5 16 21.9
003B5CE8 2019-03-26 10:33:46 20.5 17 22.1
003B5CE8 2019-03-26 10:01:30 20.5 17 22.1
003B5CE8 2019-03-26 09:29:13 20.5 18 21
003B5CE8 2019-03-26 08:56:57 20.5 19 22
003B5CE8 2019-03-26 08:24:40 20.5 19 22
003B5CE8 2019-03-26 07:52:25 20.5 20 22.1
003B5CE8 2019-03-26 07:20:09 20.5 20 21.9
003B5CE8 2019-03-26 06:47:20 20.5 20 21.8
003B5CE8 2019-03-26 06:15:03 20.5 20 21.8
003B5CE8 2019-03-26 05:42:47 20.5 20 21.8
003B5CE8 2019-03-26 05:10:30 20.5 20 21.7
003B5CE8 2019-03-26 04:38:13 20.6 20 21.7
003B5CE8 2019-03-26 04:05:56 20.5 20 21.7
003B5CE8 2019-03-26 03:33:37 20.6 20 21.6
003B5CE8 2019-03-26 03:01:21 20.6 20 21.6
003B5CE8 2019-03-26 02:29:04 20.6 20 21.5
003B5CE8 2019-03-26 01:56:47 20.6 20 21.4
003B5CE8 2019-03-26 01:24:31 20.6 20 21.1
003B5CE8 2019-03-26 00:52:14 20.6 20 21.5
003B5CE8 2019-03-26 00:19:57 20.6 20 21.4
003B5CE8 2019-03-25 23:47:38 20.7 20 21.3
003B5CE8 2019-03-25 23:15:22 20.7 20 21.4
003B5CE8 2019-03-25 22:43:05 20.7 20 21.5
003B5CE8 2019-03-25 22:10:48 20.8 20 21.4
003B5CE8 2019-03-25 21:38:29 20.8 20 21.5
003B5CE8 2019-03-25 21:06:12 20.8 20 21.5
003B5CE8 2019-03-25 20:33:54 20.9 20 21.3
003B5CE8 2019-03-25 20:01:37 20.9 20 20
003B5CE8 2019-03-25 19:29:19 20.9 20 20
003B5CE8 2019-03-25 18:57:02 20.8 20 19.6
003B5CE8 2019-03-25 18:24:45 20.9 20 19.7
003B5CE8 2019-03-25 17:52:27 20.9 21 19.5
003B5CE8 2019-03-25 17:20:09 21 22 19.4
003B5CE8 2019-03-25 16:47:50 21 23 19.1
003B5CE8 2019-03-25 16:15:34 21 23 19.1
003B5CE8 2019-03-25 15:43:16 21 24 18.9
003B5CE8 2019-03-25 15:11:02 21 24 18.8
003B5CE8 2019-03-25 14:38:43 21 24 18.7
003B5CE8 2019-03-25 14:06:25 21 24 18.5
003B5CE8 2019-03-25 13:34:07 20.9 24 18.5
003B5CE8 2019-03-25 13:01:50 20.8 24 18.6
003B5CE8 2019-03-25 12:29:32 20.7 23 18.5
003B5CE8 2019-03-25 11:57:14 20.7 24 18.4
003B5CE8 2019-03-25 11:24:56 20.7 24 17.6
003B5CE8 2019-03-25 10:52:39 20.6 24 17.6
003B5CE8 2019-03-25 10:20:21 20.5 24 17.2
003B5CE8 2019-03-25 09:48:04 20.4 24 16.6
003B5CE8 2019-03-25 09:15:48 20.2 23 16
003B5CE8 2019-03-25 08:43:30 20.2 23 16
003B5CE8 2019-03-25 08:11:12 20.2 23 15.2
003B5CE8 2019-03-25 07:38:55 20.2 23 15.8
003B5CE8 2019-03-25 07:06:38 20.2 23 15.8
003B5CE8 2019-03-25 06:34:20 20.2 23 15.4
003B5CE8 2019-03-25 06:02:02 20.2 24 15.5
003B5CE8 2019-03-25 05:29:44 20.2 23 15.7
003B5CE8 2019-03-25 04:57:26 20.2 23 15.6
003B5CE8 2019-03-25 04:25:09 20.2 23 15.6
003B5CE8 2019-03-25 03:52:19 20.2 23 15.7
003B5CE8 2019-03-25 03:20:01 20.3 23 15.9
003B5CE8 2019-03-25 02:47:44 20.3 23 16
003B5CE8 2019-03-25 02:15:28 20.3 23 16.3
003B5CE8 2019-03-25 01:43:08 20.3 23 16.1
003B5CE8 2019-03-25 01:10:51 20.4 23 16
003B5CE8 2019-03-25 00:38:34 20.4 23 15.8
003B5CE8 2019-03-25 00:06:17 20.5 23 15.7
003B5CE8 2019-03-24 23:34:00 20.5 23 15.6
003B5CE8 2019-03-24 23:01:40 20.6 23 15.9
003B5CE8 2019-03-24 22:29:21 20.6 23 16.3
003B5CE8 2019-03-24 21:57:04 20.7 23 16.3
003B5CE8 2019-03-24 21:24:47 20.7 23 16.6
003B5CE8 2019-03-24 20:52:29 20.8 23 16.8
003B5CE8 2019-03-24 20:20:11 20.9 23 19.4
003B5CE8 2019-03-24 19:47:53 20.9 23 19.5
003B5CE8 2019-03-24 19:15:35 20.9 23 19.5
003B5CE8 2019-03-24 18:43:16 21 23 19.3
003B5CE8 2019-03-24 18:10:59 21 23 19.3
003B5CE8 2019-03-24 17:38:41 21 23 19.4
003B5CE8 2019-03-24 17:06:23 21 24 19.3
003B5CE8 2019-03-24 16:34:05 21 24 19.2
003B5CE8 2019-03-24 16:01:47 20.9 24 19.3
003B5CE8 2019-03-24 15:29:29 20.8 24 19.3
003B5CE8 2019-03-24 14:57:11 20.6 24 19.3
003B5CE8 2019-03-24 14:24:53 20.4 24 19.3
003B5CE8 2019-03-24 13:52:37 20.3 24 19.1
003B5CE8 2019-03-24 13:20:20 20.3 24 19.1
003B5CE8 2019-03-24 12:48:03 20.2 24 19.1
003B5CE8 2019-03-24 12:15:45 20.2 24 19
003B5CE8 2019-03-24 11:43:29 20.2 24 19
003B5CE8 2019-03-24 11:11:10 20.2 24 18.9
003B5CE8 2019-03-24 10:38:53 20.2 24 18.9
003B5CE8 2019-03-24 10:06:35 20.2 24 18.9
003B5CE8 2019-03-24 09:34:16 20.2 24 18.8
003B5CE8 2019-03-24 09:01:57 20.2 24 18.6
003B5CE8 2019-03-24 08:29:39 20.2 24 18.6
003B5CE8 2019-03-24 07:57:21 20.2 24 18.4
003B5CE8 2019-03-24 07:25:02 20.2 24 18.4
003B5CE8 2019-03-24 06:52:45 20.2 24 14.7
003B5CE8 2019-03-24 06:52:45 20.2 24 14.7
003B5CE8 2019-03-24 06:20:27 20.1 24 14.7
003B5CE8 2019-03-24 05:48:09 20.2 24 15.2
003B5CE8 2019-03-24 05:15:52 20.2 24 15
003B5CE8 2019-03-24 04:43:35 20.2 24 15.5
003B5CE8 2019-03-24 04:11:17 20.2 24 15.3
003B5CE8 2019-03-24 03:39:01 20.2 24 15.3
003B5CE8 2019-03-24 03:06:45 20.2 24 15.4
003B5CE8 2019-03-24 02:34:26 20.2 23 15.1
003B5CE8 2019-03-24 02:02:10 20.2 23 15.2
003B5CE8 2019-03-24 01:29:53 20.2 23 15.9
003B5CE8 2019-03-24 00:56:59 20.2 23 15.9
003B5CE8 2019-03-24 00:24:42 20.2 23 15.8
003B5CE8 2019-03-23 23:52:25 20.2 23 15.8
003B5CE8 2019-03-23 23:20:10 20.2 23 15.8
003B5CE8 2019-03-23 22:47:51 20.2 23 18.9
003B5CE8 2019-03-23 22:15:35 20.2 23 18.9
003B5CE8 2019-03-23 21:43:19 20.2 23 18.9
003B5CE8 2019-03-23 21:11:03 20.3 23 18.9
003B5CE8 2019-03-23 20:38:47 20.3 22 18.8
003B5CE8 2019-03-23 20:06:32 20.3 22 19.1
003B5CE8 2019-03-23 19:34:13 20.3 22 19.1
003B5CE8 2019-03-23 19:01:57 20.3 22 19.1
003B5CE8 2019-03-23 18:29:40 20.3 22 19.1
003B5CE8 2019-03-23 17:57:24 20.3 22 19.4
003B5CE8 2019-03-23 17:25:06 20.3 22 19.2
003B5CE8 2019-03-23 16:52:49 20.3 22 19
003B5CE8 2019-03-23 16:20:32 20.3 22 19.1
003B5CE8 2019-03-23 15:48:16 20.3 21 19.1
003B5CE8 2019-03-23 15:15:59 20.3 21 19.1
003B5CE8 2019-03-23 14:43:42 20.3 21 19.1
003B5CE8 2019-03-23 14:11:25 20.4 21 19.1
003B5CE8 2019-03-23 13:39:08 20.3 21 19.2
003B5CE8 2019-03-23 13:06:51 20.4 21 19.1
003B5CE8 2019-03-23 12:34:34 20.4 21 18.8
003B5CE8 2019-03-23 12:02:18 20.4 21 19
003B5CE8 2019-03-23 11:30:01 20.4 21 19
003B5CE8 2019-03-23 10:57:45 20.4 21 19.1
003B5CE8 2019-03-23 10:25:28 20.4 21 19.2
003B5CE8 2019-03-23 09:53:12 20.3 21 19.5
003B5CE8 2019-03-23 09:20:56 20.4 20 17.4
003B5CE8 2019-03-23 08:48:39 20.3 20 17.5
003B5CE8 2019-03-23 08:16:22 20.4 20 19.8
003B5CE8 2019-03-23 07:44:06 20.4 20 19.8
003B5CE8 2019-03-23 07:11:53 20.4 20 19.9
003B5CE8 2019-03-23 06:39:35 20.4 20 19.8
003B5CE8 2019-03-23 06:07:20 20.4 20 19.9
003B5CE8 2019-03-23 05:35:02 20.4 20 20
003B5CE8 2019-03-23 05:02:46 20.5 20 20
003B5CE8 2019-03-23 04:30:30 20.5 20 19.8
003B5CE8 2019-03-23 03:58:14 20.5 19 19.7
003B5CE8 2019-03-23 03:25:59 20.5 19 19.7
003B5CE8 2019-03-23 02:53:43 20.6 19 19.7
003B5CE8 2019-03-23 02:21:26 20.6 19 19.7
003B5CE8 2019-03-23 01:49:10 20.7 19 19.8
003B5CE8 2019-03-23 01:16:54 20.7 19 19.8
003B5CE8 2019-03-23 00:44:36 20.8 19 20.1
003B5CE8 2019-03-23 00:12:22 20.8 18 20.3
003B5CE8 2019-03-22 23:40:02 20.9 18 20.3
003B5CE8 2019-03-22 23:07:46 21 18 20.4
003B5CE8 2019-03-22 22:35:29 21 18 20.3
003B5CE8 2019-03-22 22:02:31 21.2 18 20.3
003B5CE8 2019-03-22 21:30:15 21.3 17 20.4
003B5CE8 2019-03-22 20:57:59 21.3 17 20.3
003B5CE8 2019-03-22 20:25:43 21.3 17 20.2
003B5CE8 2019-03-22 19:53:26 21.3 17 20
003B5CE8 2019-03-22 19:21:09 21.3 16 20.3
003B5CE8 2019-03-22 18:48:52 21.3 16 18.5
003B5CE8 2019-03-22 18:16:35 21.3 16 18.5
003B5CE8 2019-03-22 17:44:19 21.3 16 18.6
003B5CE8 2019-03-22 17:12:03 21.3 15 18.6
003B5CE8 2019-03-22 16:39:47 21.3 16 18.6
003B5CE8 2019-03-22 16:07:31 21.2 16 18.5
003B5CE8 2019-03-22 15:35:13 21.1 16 18.9
003B5CE8 2019-03-22 15:02:56 20.9 17 19
003B5CE8 2019-03-22 14:30:39 20.7 17 19.2
003B5CE8 2019-03-22 13:58:24 20.7 18 19.4
003B5CE8 2019-03-22 13:26:05 20.6 18 19.5
003B5CE8 2019-03-22 12:53:48 20.6 18 19.4
003B5CE8 2019-03-22 12:21:32 20.6 19 19.2
003B5CE8 2019-03-22 11:49:14 20.6 19 19.4
003B5CE8 2019-03-22 11:16:57 20.6 20 19.2
003B5CE8 2019-03-22 10:44:40 20.6 20 19.3
003B5CE8 2019-03-22 10:12:23 20.6 20 19.5
003B5CE8 2019-03-22 09:40:06 20.6 21 19.5
003B5CE8 2019-03-22 09:07:48 20.5 22 19.5
003B5CE8 2019-03-22 08:35:30 20.5 22 19.5
003B5CE8 2019-03-22 08:03:12 20.5 23 19.3
003B5CE8 2019-03-22 07:30:55 20.6 24 19.4
003B5CE8 2019-03-22 06:58:37 20.5 24 19.2
003B5CE8 2019-03-22 06:26:20 20.5 24 19.3
003B5CE8 2019-03-22 05:54:03 20.6 25 19
003B5CE8 2019-03-22 05:21:45 20.6 25 18.9
003B5CE8 2019-03-22 04:49:28 20.6 25 18.9
003B5CE8 2019-03-22 04:17:10 20.6 26 18.9
003B5CE8 2019-03-22 03:44:53 20.6 26 18.7
003B5CE8 2019-03-22 03:12:35 20.6 26 18.6
003B5CE8 2019-03-22 02:40:19 20.6 27 18.5
003B5CE8 2019-03-22 02:08:00 20.6 27 18.1
003B5CE8 2019-03-22 01:35:43 20.6 28 18.4
003B5CE8 2019-03-22 01:03:25 20.7 28 18.4
003B5CE8 2019-03-22 00:31:08 20.7 28 18.2
003B5CE8 2019-03-21 23:58:50 20.7 28 18
003B5CE8 2019-03-21 23:26:33 20.7 28 18
003B5CE8 2019-03-21 22:54:15 20.8 28 18.1
003B5CE8 2019-03-21 22:21:58 20.8 28 17.7
003B5CE8 2019-03-21 21:49:40 20.8 28 17.6
003B5CE8 2019-03-21 21:17:22 20.8 28 17.1
003B5CE8 2019-03-21 20:45:04 20.8 28 16.7
003B5CE8 2019-03-21 20:12:47 20.9 28 16.4
003B5CE8 2019-03-21 19:40:31 20.9 28 16.5
003B5CE8 2019-03-21 19:07:41 20.9 28 16.5
003B5CE8 2019-03-21 18:35:23 21 28 16.4
003B5CE8 2019-03-21 18:03:06 21 28 16.4
003B5CE8 2019-03-21 17:30:50 21 28 19.1
003B5CE8 2019-03-21 16:58:30 21.1 28 19.1
003B5CE8 2019-03-21 16:26:12 21.1 28 18.9
003B5CE8 2019-03-21 15:53:56 21.2 29 18.9
003B5CE8 2019-03-21 15:21:36 21.2 29 19
003B5CE8 2019-03-21 14:49:18 21.2 28 19
003B5CE8 2019-03-21 14:16:59 21.1 27 19
003B5CE8 2019-03-21 13:44:42 21 27 18.9
003B5CE8 2019-03-21 13:12:24 20.9 26 18.9
003B5CE8 2019-03-21 12:40:08 20.8 26 18.5
003B5CE8 2019-03-21 12:07:48 20.7 25 18.2
003B5CE8 2019-03-21 11:35:30 20.7 25 18.3
003B5CE8 2019-03-21 11:03:11 20.7 25 18.6
003B5CE8 2019-03-21 10:30:54 20.7 25 18.6
003B5CE8 2019-03-21 09:58:35 20.6 25 18.7
003B5CE8 2019-03-21 09:26:17 20.6 25 18.9
003B5CE8 2019-03-21 08:53:58 20.5 25 18.9
003B5CE8 2019-03-21 08:21:41 20.5 25 19
003B5CE8 2019-03-21 07:49:24 20.5 25 19.1
003B5CE8 2019-03-21 07:17:06 20.5 25 19.1
003B5CE8 2019-03-21 06:44:49 20.5 25 19.3
003B5CE8 2019-03-21 06:12:31 20.5 25 19.3
003B5CE8 2019-03-21 05:40:13 20.5 25 19.3
003B5CE8 2019-03-21 05:07:55 20.5 25 19.2
003B5CE8 2019-03-21 04:35:37 20.6 26 19.3
003B5CE8 2019-03-21 04:03:19 20.5 26 16.6
003B5CE8 2019-03-21 03:31:01 20.5 26 16.5
003B5CE8 2019-03-21 02:58:43 20.6 26 16.5
003B5CE8 2019-03-21 02:26:25 20.5 26 16.7
003B5CE8 2019-03-21 01:54:07 20.5 26 16.4
003B5CE8 2019-03-21 01:21:51 20.5 26 16.6
003B5CE8 2019-03-21 00:49:34 20.6 26 17
003B5CE8 2019-03-21 00:17:14 20.6 26 17
003B5CE8 2019-03-20 23:44:57 20.6 26 17
003B5CE8 2019-03-20 23:12:40 20.6 26 17
003B5CE8 2019-03-20 22:40:22 20.6 26 17
003B5CE8 2019-03-20 22:08:04 20.6 26 16.9
003B5CE8 2019-03-20 21:35:45 20.6 26 16.5
003B5CE8 2019-03-20 21:03:27 20.7 26 16.7
003B5CE8 2019-03-20 20:31:12 20.7 26 16.6
003B5CE8 2019-03-20 19:58:50 20.7 26 16.3
003B5CE8 2019-03-20 19:26:33 20.7 26 16.3
003B5CE8 2019-03-20 18:54:15 20.7 26 16
003B5CE8 2019-03-20 18:21:59 20.8 26 15.9
003B5CE8 2019-03-20 17:49:41 20.8 26 16
003B5CE8 2019-03-20 17:17:25 20.9 26 15.6
003B5CE8 2019-03-20 16:45:08 20.9 26 15.7
003B5CE8 2019-03-20 16:12:08 21 26 15.9
003B5CE8 2019-03-20 15:39:51 21 26 16
003B5CE8 2019-03-20 15:07:33 21 26 16
003B5CE8 2019-03-20 14:35:16 21 25 19
003B5CE8 2019-03-20 14:02:59 21 25 19
003B5CE8 2019-03-20 13:30:42 20.9 25 19
003B5CE8 2019-03-20 12:58:25 20.9 25 18.9
003B5CE8 2019-03-20 12:26:08 20.8 25 18.9
003B5CE8 2019-03-20 11:53:53 20.8 25 18.8
003B5CE8 2019-03-20 11:21:35 20.7 25 18.5
003B5CE8 2019-03-20 10:49:20 20.7 25 18.8
003B5CE8 2019-03-20 10:17:02 20.6 24 18.8
003B5CE8 2019-03-20 09:44:43 20.5 24 18.9
003B5CE8 2019-03-20 09:12:27 20.5 24 18.9
003B5CE8 2019-03-20 08:40:10 20.4 25 20.6
003B5CE8 2019-03-20 08:07:52 20.4 25 20.7
003B5CE8 2019-03-20 07:35:34 20.4 26 20.7
003B5CE8 2019-03-20 07:03:18 20.5 26 20.7
003B5CE8 2019-03-20 06:30:58 20.5 26 20.7
003B5CE8 2019-03-20 05:58:40 20.5 26 20.7
003B5CE8 2019-03-20 05:26:26 20.5 27 20.8
003B5CE8 2019-03-20 04:54:04 20.5 27 21.2
003B5CE8 2019-03-20 04:21:46 20.5 27 21.4
003B5CE8 2019-03-20 03:49:28 20.5 27 21.5
003B5CE8 2019-03-20 03:17:10 20.5 27 21.5
003B5CE8 2019-03-20 02:44:53 20.5 28 21.5
003B5CE8 2019-03-20 02:12:35 20.5 28 21.6
003B5CE8 2019-03-20 01:40:18 20.5 28 22
003B5CE8 2019-03-20 01:08:01 20.6 28 21.1
003B5CE8 2019-03-20 00:35:43 20.6 28 21.1
003B5CE8 2019-03-20 00:03:25 20.6 28 21.3
003B5CE8 2019-03-19 23:31:08 20.6 28 21.3
003B5CE8 2019-03-19 22:58:51 20.6 28 21.6
003B5CE8 2019-03-19 22:26:32 20.7 29 21.8
003B5CE8 2019-03-19 21:54:14 20.7 29 21.9
003B5CE8 2019-03-19 21:21:56 20.7 29 22
003B5CE8 2019-03-19 20:49:39 20.7 29 22
003B5CE8 2019-03-19 20:17:23 20.8 29 22.3
003B5CE8 2019-03-19 19:45:05 20.8 29 22.5
003B5CE8 2019-03-19 19:12:47 20.8 29 21.8
003B5CE8 2019-03-19 18:40:28 20.9 29 22.2
003B5CE8 2019-03-19 18:08:11 20.9 30 22.3
003B5CE8 2019-03-19 17:35:54 21.1 30 22.5
003B5CE8 2019-03-19 17:03:37 21.1 31 22.5
003B5CE8 2019-03-19 16:31:21 21.2 31 22.5
003B5CE8 2019-03-19 15:59:00 21.1 30 22.7
003B5CE8 2019-03-19 15:26:43 21.1 29 22.6
003B5CE8 2019-03-19 14:54:25 21.1 29 22.4
003B5CE8 2019-03-19 14:22:08 21.1 30 22.4
003B5CE8 2019-03-19 13:49:50 21 29 22.3
003B5CE8 2019-03-19 13:16:57 21 30 22.6
003B5CE8 2019-03-19 12:44:42 21 30 22.2
003B5CE8 2019-03-19 12:12:24 20.9 30 22.2
003B5CE8 2019-03-19 11:40:07 20.9 30 22.3
003B5CE8 2019-03-19 11:07:49 20.8 29 22.3
003B5CE8 2019-03-19 10:35:32 20.7 29 22.5
003B5CE8 2019-03-19 10:03:14 20.6 28 22.5
003B5CE8 2019-03-19 09:30:56 20.5 28 22.3
003B5CE8 2019-03-19 08:58:38 20.5 27 22.2
003B5CE8 2019-03-19 08:26:21 20.5 27 22.2
003B5CE8 2019-03-19 07:54:03 20.5 27 22.5
003B5CE8 2019-03-19 07:21:45 20.5 27 22.4
003B5CE8 2019-03-19 06:49:27 20.5 27 22.3
003B5CE8 2019-03-19 06:17:09 20.5 27 22.3
003B5CE8 2019-03-19 05:44:51 20.5 27 21.9
003B5CE8 2019-03-19 05:12:34 20.5 27 21.8
003B5CE8 2019-03-19 04:40:17 20.5 27 21.6
003B5CE8 2019-03-19 04:07:59 20.5 27 21.7
003B5CE8 2019-03-19 03:35:42 20.5 27 21.8
003B5CE8 2019-03-19 03:03:25 20.5 27 21.8
003B5CE8 2019-03-19 02:31:08 20.5 27 21.7
003B5CE8 2019-03-19 01:58:51 20.5 27 22
003B5CE8 2019-03-19 01:26:34 20.5 27 22
003B5CE8 2019-03-19 00:54:17 20.5 27 22.2
003B5CE8 2019-03-19 00:22:00 20.5 27 22.2
003B5CE8 2019-03-18 23:49:43 20.5 27 22
003B5CE8 2019-03-18 23:17:26 20.6 27 22.2
003B5CE8 2019-03-18 22:45:09 20.6 27 22.3
003B5CE8 2019-03-18 22:12:52 20.6 27 22.3
003B5CE8 2019-03-18 21:40:35 20.6 27 22.1
003B5CE8 2019-03-18 21:08:20 20.6 27 22
003B5CE8 2019-03-18 20:36:03 20.6 27 22
003B5CE8 2019-03-18 20:03:46 20.7 27 22.2
003B5CE8 2019-03-18 19:31:29 20.7 27 22.3
003B5CE8 2019-03-18 18:59:10 20.7 27 22.5
003B5CE8 2019-03-18 18:26:53 20.7 27 22.6
003B5CE8 2019-03-18 17:54:35 20.8 27 22.6
003B5CE8 2019-03-18 17:22:17 20.8 27 22.5
003B5CE8 2019-03-18 16:50:00 20.9 27 22.4
003B5CE8 2019-03-18 16:17:42 20.9 28 22.5
003B5CE8 2019-03-18 15:45:25 20.8 27 22.5
003B5CE8 2019-03-18 15:13:09 20.9 27 22.6
003B5CE8 2019-03-18 14:40:51 20.8 27 22.9
003B5CE8 2019-03-18 14:08:35 20.8 28 23.1
003B5CE8 2019-03-18 13:36:17 20.7 27 22.9
003B5CE8 2019-03-18 13:04:00 20.7 27 22.8
003B5CE8 2019-03-18 12:31:43 20.7 28 22.7
003B5CE8 2019-03-18 11:59:25 20.7 28 22.8
003B5CE8 2019-03-18 11:27:07 20.7 28 22.8
003B5CE8 2019-03-18 10:54:50 20.6 27 22.7
003B5CE8 2019-03-18 10:21:59 20.6 27 22.9
003B5CE8 2019-03-18 09:49:43 20.5 28 22.8
003B5CE8 2019-03-18 09:17:25 20.5 28 22.7
003B5CE8 2019-03-18 08:45:09 20.5 28 22.9
003B5CE8 2019-03-18 08:12:52 20.5 28 22.9
003B5CE8 2019-03-18 07:40:34 20.5 28 22.8
003B5CE8 2019-03-18 07:08:17 20.5 28 22.7
003B5CE8 2019-03-18 06:35:59 20.5 28 22.9
003B5CE8 2019-03-18 06:03:42 20.5 28 22.6
003B5CE8 2019-03-18 05:31:25 20.5 27 22.4
003B5CE8 2019-03-18 04:59:08 20.5 27 22.2
003B5CE8 2019-03-18 04:26:51 20.5 27 22.5
003B5CE8 2019-03-18 03:54:34 20.5 27 22.7
003B5CE8 2019-03-18 03:22:17 20.5 27 22.9
003B5CE8 2019-03-18 02:50:00 20.5 27 23
003B5CE8 2019-03-18 02:17:43 20.5 27 23
003B5CE8 2019-03-18 01:45:27 20.5 27 22.9
003B5CE8 2019-03-18 01:13:11 20.5 27 22.7
003B5CE8 2019-03-18 00:40:56 20.5 27 22.8
003B5CE8 2019-03-18 00:08:37 20.5 26 23
003B5CE8 2019-03-17 23:36:22 20.5 26 23.7
003B5CE8 2019-03-17 23:04:05 20.5 26 23.8
003B5CE8 2019-03-17 22:31:48 20.5 26 23.8
003B5CE8 2019-03-17 21:59:31 20.5 26 24
003B5CE8 2019-03-17 21:27:14 20.5 26 24
003B5CE8 2019-03-17 20:54:57 20.5 26 23.9
003B5CE8 2019-03-17 20:22:40 20.5 26 23.9
003B5CE8 2019-03-17 19:50:23 20.5 26 24.1
003B5CE8 2019-03-17 19:18:05 20.5 26 24.1
003B5CE8 2019-03-17 18:45:48 20.5 26 24.3
003B5CE8 2019-03-17 18:13:32 20.5 26 24.4
003B5CE8 2019-03-17 17:41:15 20.5 26 24.5
003B5CE8 2019-03-17 17:08:59 20.5 27 24.5
003B5CE8 2019-03-17 16:36:41 20.5 27 24.6
003B5CE8 2019-03-17 16:04:23 20.5 27 24.6
003B5CE8 2019-03-17 15:32:06 20.6 27 24.6
003B5CE8 2019-03-17 14:59:48 20.5 27 24.6
003B5CE8 2019-03-17 14:27:31 20.5 27 24.5
003B5CE8 2019-03-17 13:55:13 20.6 27 24.4
003B5CE8 2019-03-17 13:22:56 20.6 27 24.3
003B5CE8 2019-03-17 12:50:39 20.6 27 24.5
003B5CE8 2019-03-17 12:18:20 20.5 27 24.5
003B5CE8 2019-03-17 11:46:02 20.6 27 24.4
003B5CE8 2019-03-17 11:13:44 20.6 27 24.4
003B5CE8 2019-03-17 10:41:26 20.5 27 24.4
003B5CE8 2019-03-17 10:09:07 20.5 27 24
003B5CE8 2019-03-17 09:36:50 20.5 27 23.9
003B5CE8 2019-03-17 09:04:32 20.5 27 24.1
003B5CE8 2019-03-17 08:32:12 20.5 27 24
003B5CE8 2019-03-17 07:59:53 20.5 27 24
003B5CE8 2019-03-17 07:27:02 20.5 27 24
003B5CE8 2019-03-17 06:54:43 20.5 27 24
003B5CE8 2019-03-17 06:22:25 20.5 27 24
003B5CE8 2019-03-17 05:50:07 20.5 27 23.9
003B5CE8 2019-03-17 05:17:49 20.5 27 23.8
003B5CE8 2019-03-17 04:45:32 20.5 27 23.6
003B5CE8 2019-03-17 04:13:14 20.5 27 23.4
003B5CE8 2019-03-17 03:40:57 20.5 27 23.4
003B5CE8 2019-03-17 03:08:39 20.5 27 23.4
003B5CE8 2019-03-17 02:36:21 20.5 27 23.5
003B5CE8 2019-03-17 02:04:04 20.5 27 23.4
003B5CE8 2019-03-17 01:31:47 20.5 27 23.4
003B5CE8 2019-03-17 00:59:30 20.5 27 23.4
003B5CE8 2019-03-17 00:27:13 20.5 27 23.5
003B5CE8 2019-03-16 23:54:56 20.5 27 23.2
003B5CE8 2019-03-16 23:22:38 20.5 27 23.3
003B5CE8 2019-03-16 22:50:22 20.5 27 23.4
003B5CE8 2019-03-16 22:18:03 20.5 27 23.5
003B5CE8 2019-03-16 21:45:46 20.5 27 23.5
003B5CE8 2019-03-16 21:13:29 20.5 27 23.6
003B5CE8 2019-03-16 20:41:12 20.5 27 23.6
003B5CE8 2019-03-16 20:08:54 20.5 27 23.4
003B5CE8 2019-03-16 19:36:36 20.5 27 23.5
003B5CE8 2019-03-16 19:04:18 20.5 27 23.5
003B5CE8 2019-03-16 18:32:01 20.5 27 23.4
003B5CE8 2019-03-16 17:59:44 20.6 27 23.3
003B5CE8 2019-03-16 17:27:25 20.5 27 23.2
003B5CE8 2019-03-16 16:55:07 20.6 27 23.2
003B5CE8 2019-03-16 16:22:50 20.6 27 23.4
003B5CE8 2019-03-16 15:50:32 20.6 27 23.6
003B5CE8 2019-03-16 15:18:14 20.5 27 23.7
003B5CE8 2019-03-16 14:45:57 20.6 26 23.9
003B5CE8 2019-03-16 14:13:40 20.6 26 23.8
003B5CE8 2019-03-16 13:41:22 20.6 26 23.9
003B5CE8 2019-03-16 13:09:04 20.5 26 23.9
003B5CE8 2019-03-16 12:36:46 20.5 26 24
003B5CE8 2019-03-16 12:04:28 20.6 26 24
003B5CE8 2019-03-16 11:32:10 20.5 26 24
003B5CE8 2019-03-16 10:59:52 20.5 26 24
003B5CE8 2019-03-16 10:27:34 20.5 26 24
003B5CE8 2019-03-16 09:55:17 20.6 26 24
003B5CE8 2019-03-16 09:22:59 20.5 26 23.9
003B5CE8 2019-03-16 08:50:41 20.5 26 24.1
003B5CE8 2019-03-16 08:18:23 20.6 26 24
003B5CE8 2019-03-16 07:46:05 20.6 26 24
003B5CE8 2019-03-16 07:13:46 20.6 26 24
003B5CE8 2019-03-16 06:41:30 20.6 26 24
003B5CE8 2019-03-16 06:09:12 20.6 26 24.1
003B5CE8 2019-03-16 05:36:56 20.6 27 24.2
003B5CE8 2019-03-16 05:04:38 20.6 27 24.2
003B5CE8 2019-03-16 04:31:44 20.5 27 24.2
003B5CE8 2019-03-16 03:59:26 20.6 27 24
003B5CE8 2019-03-16 03:27:09 20.5 27 23.8
003B5CE8 2019-03-16 02:54:52 20.5 27 23.6
003B5CE8 2019-03-16 02:22:35 20.5 27 23.4
003B5CE8 2019-03-16 01:50:18 20.6 27 23.2
003B5CE8 2019-03-16 01:18:01 20.6 27 23.3
003B5CE8 2019-03-16 00:45:44 20.6 27 23.1
003B5CE8 2019-03-16 00:13:27 20.6 27 22.9
003B5CE8 2019-03-15 23:41:10 20.6 27 22.7
003B5CE8 2019-03-15 23:08:53 20.6 27 22.6
003B5CE8 2019-03-15 22:36:35 20.6 27 22.4
003B5CE8 2019-03-15 22:04:20 20.6 27 22.3
003B5CE8 2019-03-15 21:32:04 20.7 27 22.3
003B5CE8 2019-03-15 20:59:48 20.7 27 22
003B5CE8 2019-03-15 20:27:31 20.7 27 21.9
003B5CE8 2019-03-15 19:55:15 20.7 27 21.5
003B5CE8 2019-03-15 19:22:58 20.7 27 21.5
003B5CE8 2019-03-15 18:50:42 20.7 27 21.3
003B5CE8 2019-03-15 18:18:27 20.7 27 21.1
003B5CE8 2019-03-15 17:46:10 20.7 27 21
003B5CE8 2019-03-15 17:13:54 20.7 27 20.7
003B5CE8 2019-03-15 16:41:37 20.7 27 21.7
003B5CE8 2019-03-15 16:09:22 20.7 27 21.6
003B5CE8 2019-03-15 15:37:05 20.7 27 21.9
003B5CE8 2019-03-15 15:04:48 20.7 27 21.9
003B5CE8 2019-03-15 14:32:31 20.7 27 22.1
003B5CE8 2019-03-15 14:00:13 20.7 27 22.1
003B5CE8 2019-03-15 13:27:57 20.7 27 22.2
003B5CE8 2019-03-15 12:55:40 20.7 27 22.3
003B5CE8 2019-03-15 12:23:23 20.7 27 22.5
003B5CE8 2019-03-15 11:51:06 20.7 27 22.6
003B5CE8 2019-03-15 11:18:49 20.7 27 22.6
003B5CE8 2019-03-15 10:46:32 20.6 26 22.7
003B5CE8 2019-03-15 10:14:15 20.6 26 22.8
003B5CE8 2019-03-15 09:41:59 20.6 26 22.9
003B5CE8 2019-03-15 09:09:43 20.5 26 22.9
003B5CE8 2019-03-15 08:37:26 20.5 25 23
003B5CE8 2019-03-15 08:05:09 20.5 25 23
003B5CE8 2019-03-15 07:32:53 20.5 25 22.9
003B5CE8 2019-03-15 07:00:36 20.5 25 23
003B5CE8 2019-03-15 06:28:19 20.5 25 23.1
003B5CE8 2019-03-15 05:56:03 20.5 25 23
003B5CE8 2019-03-15 05:23:46 20.5 25 22.9
003B5CE8 2019-03-15 04:51:30 20.5 24 22.8
003B5CE8 2019-03-15 04:19:13 20.6 25 22.8
003B5CE8 2019-03-15 03:46:57 20.6 24 22.8
003B5CE8 2019-03-15 03:14:40 20.6 24 22.8
003B5CE8 2019-03-15 02:42:22 20.6 24 22.8
003B5CE8 2019-03-15 02:10:04 20.6 24 22.6
003B5CE8 2019-03-15 01:37:12 20.6 24 23.3
003B5CE8 2019-03-15 01:04:54 20.6 24 23.3
003B5CE8 2019-03-15 00:32:36 20.6 24 23.4
003B5CE8 2019-03-15 00:00:19 20.6 24 23.3
003B5CE8 2019-03-14 23:28:01 20.6 24 23.1
003B5CE8 2019-03-14 22:55:44 20.7 24 23.1
003B5CE8 2019-03-14 22:23:25 20.7 24 23.2
003B5CE8 2019-03-14 21:51:07 20.7 24 23.2
003B5CE8 2019-03-14 21:18:49 20.7 24 23.2
003B5CE8 2019-03-14 20:46:32 20.7 24 23.4
003B5CE8 2019-03-14 20:14:14 20.7 24 23.4
003B5CE8 2019-03-14 19:41:56 20.8 24 23.4
003B5CE8 2019-03-14 19:09:39 20.8 24 24.1
003B5CE8 2019-03-14 18:37:21 20.8 24 24.1
003B5CE8 2019-03-14 18:05:03 20.8 24 24.1
003B5CE8 2019-03-14 17:32:47 20.8 24 24
003B5CE8 2019-03-14 17:00:30 20.8 24 24
003B5CE8 2019-03-14 16:28:11 20.8 24 24
003B5CE8 2019-03-14 15:55:54 20.8 24 24
003B5CE8 2019-03-14 15:23:36 20.8 24 24.1
003B5CE8 2019-03-14 14:51:20 20.8 25 24.2
003B5CE8 2019-03-14 14:19:03 20.8 25 24.2
003B5CE8 2019-03-14 13:46:46 20.9 25 23.8
003B5CE8 2019-03-14 13:14:29 20.8 24 23.8
003B5CE8 2019-03-14 12:42:12 20.8 24 23.8
003B5CE8 2019-03-14 12:09:55 20.7 24 23.1
003B5CE8 2019-03-14 11:37:39 20.7 24 23.1
003B5CE8 2019-03-14 11:05:22 20.7 24 23
003B5CE8 2019-03-14 10:33:07 20.7 23 23
003B5CE8 2019-03-14 10:00:49 20.6 23 22.9
003B5CE8 2019-03-14 09:28:34 20.6 22 22.9
003B5CE8 2019-03-14 08:56:16 20.6 22 22.8
003B5CE8 2019-03-14 05:10:17 20.5 19 21.3
003B5CE8 2019-03-14 04:38:01 20.5 19 21.2
003B5CE8 2019-03-14 04:05:45 20.5 19 21.2
003B5CE8 2019-03-14 03:33:29 20.5 19 21.2
003B5CE8 2019-03-14 03:01:12 20.5 19 21.1
003B5CE8 2019-03-14 02:28:55 20.5 18 22.2
003B5CE8 2019-03-14 01:56:38 20.5 18 21.9
003B5CE8 2019-03-14 01:24:21 20.5 18 21.6
003B5CE8 2019-03-14 00:52:04 20.5 18 21.5
003B5CE8 2019-03-14 00:19:47 20.5 18 21.1
003B5CE8 2019-03-13 23:47:31 20.6 17 21
003B5CE8 2019-03-13 23:15:14 20.6 17 20.9
003B5CE8 2019-03-13 22:42:23 20.5 17 20.9
003B5CE8 2019-03-13 22:10:07 20.5 17 21.2
003B5CE8 2019-03-13 21:37:50 20.6 17 21.2
003B5CE8 2019-03-13 21:05:34 20.6 17 21.2
003B5CE8 2019-03-13 20:33:18 20.6 17 21.2
003B5CE8 2019-03-13 20:01:01 20.6 17 21.2
003B5CE8 2019-03-13 19:28:45 20.7 17 21.2
003B5CE8 2019-03-13 18:56:29 20.7 16 21.2
003B5CE8 2019-03-13 18:24:11 20.7 16 21.4
003B5CE8 2019-03-13 17:51:54 20.8 16 21.7
003B5CE8 2019-03-13 17:19:37 20.8 16 21.8
003B5CE8 2019-03-13 16:47:20 20.9 16 21.9
003B5CE8 2019-03-13 16:15:03 20.9 17 22.8
003B5CE8 2019-03-13 15:42:45 20.8 16 22.9
003B5CE8 2019-03-13 15:10:27 20.8 16 23.1
003B5CE8 2019-03-13 14:38:11 20.7 16 23.8
003B5CE8 2019-03-13 14:05:53 20.7 17 23.8
003B5CE8 2019-03-13 13:33:35 20.7 16 23.1
003B5CE8 2019-03-13 13:01:18 20.7 17 23.2
003B5CE8 2019-03-13 12:29:00 20.7 17 23.2
003B5CE8 2019-03-13 11:56:43 20.7 17 23.3
003B5CE8 2019-03-13 11:24:27 20.7 17 24
003B5CE8 2019-03-13 10:52:10 20.7 17 24
003B5CE8 2019-03-13 10:19:54 20.6 16 24
003B5CE8 2019-03-13 09:47:40 20.5 16 24.1
003B5CE8 2019-03-13 09:15:22 20.3 15 24
003B5CE8 2019-03-13 08:43:04 20.2 14 23.9
003B5CE8 2019-03-13 08:10:48 20.2 15 23.9
003B5CE8 2019-03-13 07:38:30 20.3 15 23.9
003B5CE8 2019-03-13 07:06:13 20.3 15 24
003B5CE8 2019-03-13 06:33:57 20.3 15 23.9
003B5CE8 2019-03-13 06:01:39 20.3 15 23.9
003B5CE8 2019-03-13 05:29:23 20.3 15 23.9
003B5CE8 2019-03-13 04:57:06 20.3 16 23.8
003B5CE8 2019-03-13 04:24:50 20.3 16 23.6
003B5CE8 2019-03-13 03:52:34 20.3 16 23.5
003B5CE8 2019-03-13 03:20:17 20.3 16 23.5
003B5CE8 2019-03-13 02:48:00 20.4 16 22.6
003B5CE8 2019-03-13 02:15:42 20.4 16 23.3
003B5CE8 2019-03-13 01:43:24 20.4 16 23.2
003B5CE8 2019-03-13 01:11:08 20.4 16 22.4
003B5CE8 2019-03-13 00:38:50 20.4 16 22.4
003B5CE8 2019-03-13 00:06:33 20.4 16 22.3
003B5CE8 2019-03-12 23:34:17 20.5 16 22.3
003B5CE8 2019-03-12 23:02:00 20.5 16 22.4
003B5CE8 2019-03-12 22:29:43 20.5 16 22.4
003B5CE8 2019-03-12 21:57:27 20.5 16 22.4
003B5CE8 2019-03-12 21:25:10 20.5 16 22.5
003B5CE8 2019-03-12 20:52:53 20.5 16 23.3
003B5CE8 2019-03-12 20:20:36 20.6 16 23.9
003B5CE8 2019-03-12 19:47:47 20.6 16 25
003B5CE8 2019-03-12 19:15:32 20.6 16 25.5
003B5CE8 2019-03-12 18:43:15 20.6 16 25.9
003B5CE8 2019-03-12 18:10:59 20.6 16 26.2
003B5CE8 2019-03-12 17:38:42 20.7 16 26.6
003B5CE8 2019-03-12 17:06:26 20.7 16 26.9
003B5CE8 2019-03-12 16:34:09 20.7 16 27.2
003B5CE8 2019-03-12 16:01:54 20.7 16 27.5
003B5CE8 2019-03-12 15:29:37 20.6 16 27.8
003B5CE8 2019-03-12 14:57:20 20.6 16 28.1
003B5CE8 2019-03-12 14:25:02 20.6 16 28.3
003B5CE8 2019-03-12 13:52:45 20.6 16 28.5
003B5CE8 2019-03-12 13:20:28 20.6 16 28.5
003B5CE8 2019-03-12 12:48:11 20.5 16 28.8
003B5CE8 2019-03-12 12:15:54 20.5 16 29
003B5CE8 2019-03-12 11:43:39 20.5 16 29.2
003B5CE8 2019-03-12 11:11:23 20.4 16 29.4
003B5CE8 2019-03-12 10:39:07 20.4 15 29.6
003B5CE8 2019-03-12 10:06:50 20.3 15 29.7
003B5CE8 2019-03-12 09:34:32 20.3 15 29.9
003B5CE8 2019-03-12 09:02:15 20.2 15 29.9
003B5CE8 2019-03-12 08:29:58 20.3 15 30
003B5CE8 2019-03-12 07:57:40 20.2 15 30
003B5CE8 2019-03-12 07:25:23 20.3 16 29.8
003B5CE8 2019-03-12 06:53:05 20.3 16 29.8
003B5CE8 2019-03-12 06:20:47 20.3 16 29.8
003B5CE8 2019-03-12 05:48:30 20.3 16 29.8
003B5CE8 2019-03-12 05:16:13 20.3 16 29.8
003B5CE8 2019-03-12 04:43:56 20.3 16 29.7
003B5CE8 2019-03-12 04:11:39 20.4 16 29.5
003B5CE8 2019-03-12 03:39:22 20.4 16 29.3
003B5CE8 2019-03-12 03:07:06 20.4 16 29.1
003B5CE8 2019-03-12 02:34:50 20.4 16 29
003B5CE8 2019-03-12 02:02:34 20.4 16 28.8
003B5CE8 2019-03-12 01:30:19 20.4 16 28.6
003B5CE8 2019-03-12 00:58:04 20.4 16 28.4
003B5CE8 2019-03-12 00:25:49 20.4 16 28.2
003B5CE8 2019-03-11 23:53:33 20.4 16 27.9
003B5CE8 2019-03-11 23:21:16 20.5 16 27.7
003B5CE8 2019-03-11 22:49:00 20.5 16 27.4
003B5CE8 2019-03-11 22:16:43 20.5 16 27.1
003B5CE8 2019-03-11 21:44:26 20.5 16 26.8
003B5CE8 2019-03-11 21:12:10 20.6 16 26.5
003B5CE8 2019-03-11 20:39:53 20.6 16 26.1
003B5CE8 2019-03-11 20:07:37 20.6 16 25.7
003B5CE8 2019-03-11 19:35:20 20.6 16 25.3
003B5CE8 2019-03-11 19:03:02 20.6 16 24.9
003B5CE8 2019-03-11 18:30:46 20.7 16 24.5
003B5CE8 2019-03-11 17:58:30 20.7 16 24.6
003B5CE8 2019-03-11 17:26:12 20.7 16 24.1
003B5CE8 2019-03-11 16:53:23 20.7 16 23.5
003B5CE8 2019-03-11 16:21:06 20.7 16 22.9
003B5CE8 2019-03-11 15:48:49 20.7 16 23.1
003B5CE8 2019-03-11 15:16:32 20.6 16 23.3
003B5CE8 2019-03-11 14:44:15 20.6 16 23.4
003B5CE8 2019-03-11 14:11:58 20.5 16 23.7
003B5CE8 2019-03-11 13:39:42 20.5 16 23.5
003B5CE8 2019-03-11 13:07:25 20.4 16 23.4
003B5CE8 2019-03-11 12:35:08 20.5 16 23.6
003B5CE8 2019-03-11 12:02:49 20.4 16 23.5
003B5CE8 2019-03-11 11:30:33 20.4 16 23.5
003B5CE8 2019-03-11 10:58:16 20.4 16 23.5
003B5CE8 2019-03-11 10:25:59 20.4 17 23.5
003B5CE8 2019-03-11 09:53:43 20.3 17 23.5
003B5CE8 2019-03-11 09:21:27 20.3 17 23.5
003B5CE8 2019-03-11 08:49:11 20.2 17 23.5
003B5CE8 2019-03-11 08:16:55 20.2 17 23.5
003B5CE8 2019-03-11 07:44:38 20.3 18 23.6
003B5CE8 2019-03-11 07:12:21 20.3 18 23.6
003B5CE8 2019-03-11 06:40:04 20.3 18 23.5
003B5CE8 2019-03-11 06:07:47 20.3 18 23.4
003B5CE8 2019-03-11 05:35:31 20.3 18 23.2
003B5CE8 2019-03-11 05:03:14 20.3 18 23.1
003B5CE8 2019-03-11 04:30:57 20.4 18 23
003B5CE8 2019-03-11 03:58:40 20.3 18 22.8
003B5CE8 2019-03-11 03:26:24 20.4 18 22
003B5CE8 2019-03-11 02:54:08 20.4 18 21.8
003B5CE8 2019-03-11 02:21:50 20.4 19 21.6
003B5CE8 2019-03-11 01:49:34 20.4 19 21.2
003B5CE8 2019-03-11 01:17:16 20.4 19 21.1
003B5CE8 2019-03-11 00:45:00 20.4 19 20.6
003B5CE8 2019-03-11 00:12:44 20.4 19 20.3
003B5CE8 2019-03-10 23:40:28 20.4 19 20.2
003B5CE8 2019-03-10 23:08:11 20.4 19 20.1
003B5CE8 2019-03-10 22:35:54 20.4 19 21.3
003B5CE8 2019-03-10 22:03:37 20.5 19 21.3
003B5CE8 2019-03-10 21:31:21 20.5 19 21.2
003B5CE8 2019-03-10 20:59:04 20.5 19 22.3
003B5CE8 2019-03-10 20:26:48 20.5 19 22.2
003B5CE8 2019-03-10 19:54:31 20.5 20 22.2
003B5CE8 2019-03-10 19:22:15 20.6 20 22.2
003B5CE8 2019-03-10 18:49:59 20.6 20 22.3
003B5CE8 2019-03-10 18:17:42 20.6 20 22.2
003B5CE8 2019-03-10 17:45:26 20.7 20 22.2
003B5CE8 2019-03-10 17:13:09 20.7 20 22.3
003B5CE8 2019-03-10 16:40:51 20.6 20 22.3
003B5CE8 2019-03-10 16:08:36 20.6 20 22.4
003B5CE8 2019-03-10 15:36:18 20.6 21 22.4
003B5CE8 2019-03-10 15:04:00 20.6 22 22.4
003B5CE8 2019-03-10 14:31:47 20.6 23 22.5
003B5CE8 2019-03-10 13:58:47 20.6 23 22.6
003B5CE8 2019-03-10 13:26:31 20.5 24 23.3
003B5CE8 2019-03-10 12:54:14 20.5 24 23.3
003B5CE8 2019-03-10 12:21:58 20.5 24 23.3
003B5CE8 2019-03-10 11:49:42 20.5 24 23.4
003B5CE8 2019-03-10 11:17:25 20.4 24 24.1
003B5CE8 2019-03-10 10:45:09 20.5 24 24.1
003B5CE8 2019-03-10 10:12:53 20.4 24 24.2
003B5CE8 2019-03-10 09:40:37 20.4 24 24.1
003B5CE8 2019-03-10 09:08:20 20.4 25 23.5
003B5CE8 2019-03-10 08:36:04 20.5 25 23.6
003B5CE8 2019-03-10 08:03:47 20.5 25 23.6
003B5CE8 2019-03-10 07:31:30 20.5 25 22.9
003B5CE8 2019-03-10 06:59:14 20.5 25 22.9
003B5CE8 2019-03-10 06:26:57 20.5 25 22.9
003B5CE8 2019-03-10 05:54:41 20.5 25 22.9
003B5CE8 2019-03-10 05:22:24 20.5 24 22.9
003B5CE8 2019-03-10 04:50:07 20.5 24 22.9
003B5CE8 2019-03-10 04:17:51 20.5 24 23
003B5CE8 2019-03-10 03:45:34 20.5 24 23
003B5CE8 2019-03-10 03:13:18 20.5 24 22.9
003B5CE8 2019-03-10 02:41:01 20.5 24 22.8
003B5CE8 2019-03-10 02:08:44 20.6 24 22.8
003B5CE8 2019-03-10 01:36:28 20.5 24 22.8
003B5CE8 2019-03-10 01:04:13 20.5 24 22.7
003B5CE8 2019-03-10 00:31:57 20.5 24 22.6
003B5CE8 2019-03-09 23:59:41 20.5 24 21.7
003B5CE8 2019-03-09 23:27:25 20.6 24 21.9
003B5CE8 2019-03-09 22:55:10 20.6 24 22.2
003B5CE8 2019-03-09 22:22:55 20.6 24 22.2
003B5CE8 2019-03-09 21:50:39 20.6 24 21
003B5CE8 2019-03-09 21:18:22 20.5 24 21
003B5CE8 2019-03-09 20:46:06 20.6 23 21.2
003B5CE8 2019-03-09 20:13:49 20.6 23 22.3
003B5CE8 2019-03-09 19:41:33 20.6 23 22.2
003B5CE8 2019-03-09 19:09:16 20.6 23 22.2
003B5CE8 2019-03-09 18:37:01 20.7 23 22.2
003B5CE8 2019-03-09 18:04:45 20.7 23 22.1
003B5CE8 2019-03-09 17:32:28 20.7 23 22
003B5CE8 2019-03-09 17:00:12 20.7 23 22
003B5CE8 2019-03-09 16:27:56 20.7 23 22
003B5CE8 2019-03-09 15:55:40 20.7 23 21.9
003B5CE8 2019-03-09 15:23:23 20.7 23 21.9
003B5CE8 2019-03-09 14:51:07 20.7 23 21.8
003B5CE8 2019-03-09 14:18:51 20.7 23 21.9
003B5CE8 2019-03-09 13:46:33 20.7 24 21.9
003B5CE8 2019-03-09 13:14:17 20.6 23 22
003B5CE8 2019-03-09 12:41:59 20.6 24 22
003B5CE8 2019-03-09 12:09:42 20.6 24 22
003B5CE8 2019-03-09 11:37:25 20.6 24 22.1
003B5CE8 2019-03-09 11:04:26 20.6 24 22.1
003B5CE8 2019-03-09 10:32:07 20.5 24 21.9
003B5CE8 2019-03-09 09:59:51 20.5 24 21.9
003B5CE8 2019-03-09 09:27:33 20.5 24 21.8
003B5CE8 2019-03-09 08:55:16 20.5 25 21.8
003B5CE8 2019-03-09 08:22:59 20.5 25 21.8
003B5CE8 2019-03-09 07:50:42 20.5 25 21.8
003B5CE8 2019-03-09 07:18:24 20.5 25 21.7
003B5CE8 2019-03-09 06:46:07 20.5 26 20.5
003B5CE8 2019-03-09 06:13:50 20.5 26 20.5
003B5CE8 2019-03-09 05:41:34 20.5 26 20.5
003B5CE8 2019-03-09 05:09:16 20.6 26 20.6
003B5CE8 2019-03-09 04:36:59 20.6 27 20.7
003B5CE8 2019-03-09 04:04:41 20.6 27 20.6
003B5CE8 2019-03-09 03:32:23 20.6 27 20.6
003B5CE8 2019-03-09 03:00:05 20.7 27 20.8
003B5CE8 2019-03-09 02:27:48 20.7 27 20.7
003B5CE8 2019-03-09 01:55:30 20.7 27 20.6
003B5CE8 2019-03-09 01:23:12 20.7 27 21.8
003B5CE8 2019-03-09 00:50:55 20.7 27 21.7
003B5CE8 2019-03-09 00:18:37 20.7 27 21.9
003B5CE8 2019-03-08 23:46:20 20.7 27 21.8
003B5CE8 2019-03-08 23:14:03 20.7 27 22
003B5CE8 2019-03-08 22:41:44 20.7 27 22
003B5CE8 2019-03-08 22:09:27 20.8 27 22.1
003B5CE8 2019-03-08 21:37:09 20.8 27 22.2
003B5CE8 2019-03-08 21:04:52 20.9 28 22.5
003B5CE8 2019-03-08 20:32:36 20.9 27 22.4
003B5CE8 2019-03-08 20:00:19 20.9 28 22.6
003B5CE8 2019-03-08 19:28:01 20.9 28 22.5
003B5CE8 2019-03-08 18:55:44 20.9 28 22.7
003B5CE8 2019-03-08 18:23:26 20.9 28 22.9
003B5CE8 2019-03-08 17:51:08 20.9 28 22.7
003B5CE8 2019-03-08 17:18:51 21.1 28 22.7
003B5CE8 2019-03-08 16:46:32 21.1 28 23
003B5CE8 2019-03-08 16:14:15 21 28 23
003B5CE8 2019-03-08 15:41:58 21 28 23.3
003B5CE8 2019-03-08 15:09:41 20.9 28 23.2
003B5CE8 2019-03-08 14:37:24 20.9 28 23.3
003B5CE8 2019-03-08 14:05:07 20.9 28 23.5
003B5CE8 2019-03-08 13:32:51 20.9 27 23.4
003B5CE8 2019-03-08 13:00:34 20.9 28 23.5
003B5CE8 2019-03-08 12:28:16 20.8 27 23.6
003B5CE8 2019-03-08 11:56:00 20.7 26 22.9
003B5CE8 2019-03-08 11:23:43 20.8 26 23.2
003B5CE8 2019-03-08 10:51:26 20.7 26 23.1
003B5CE8 2019-03-08 10:19:09 20.7 26 23.2
003B5CE8 2019-03-08 09:46:53 20.7 26 23
003B5CE8 2019-03-08 09:14:36 20.7 25 23
003B5CE8 2019-03-08 08:42:18 20.7 25 22.9
003B5CE8 2019-03-08 08:09:29 20.6 25 23.5
003B5CE8 2019-03-08 07:37:12 20.7 24 23.5
003B5CE8 2019-03-08 07:04:56 20.7 24 23.2
003B5CE8 2019-03-08 06:32:38 20.6 24 23.9
003B5CE8 2019-03-08 06:00:20 20.7 24 23.8
003B5CE8 2019-03-08 05:28:04 20.7 24 23.7
003B5CE8 2019-03-08 04:55:47 20.7 24 23.7
003B5CE8 2019-03-08 04:23:29 20.6 24 23.7
003B5CE8 2019-03-08 03:51:12 20.6 23 23.4
003B5CE8 2019-03-08 03:18:55 20.7 23 23.3
003B5CE8 2019-03-08 02:46:37 20.7 23 23.1
003B5CE8 2019-03-08 02:14:20 20.7 23 23.1
003B5CE8 2019-03-08 01:42:04 20.7 23 23
003B5CE8 2019-03-08 01:09:47 20.7 23 22.9
003B5CE8 2019-03-08 00:37:30 20.7 23 22.9
003B5CE8 2019-03-08 00:05:12 20.7 23 22.8
003B5CE8 2019-03-07 23:32:55 20.7 23 22.6
003B5CE8 2019-03-07 23:00:38 20.7 23 22.8
003B5CE8 2019-03-07 22:28:22 20.7 23 22.6
003B5CE8 2019-03-07 21:56:05 20.7 23 22.7
003B5CE8 2019-03-07 21:23:48 20.8 23 23.4
003B5CE8 2019-03-07 20:51:30 20.8 23 23.6
003B5CE8 2019-03-07 20:19:12 20.8 23 23.6
003B5CE8 2019-03-07 19:46:55 20.8 23 23.7
003B5CE8 2019-03-07 19:14:39 20.8 23 23
003B5CE8 2019-03-07 18:42:21 20.9 23 23
003B5CE8 2019-03-07 18:10:05 21 23 23.2
003B5CE8 2019-03-07 17:37:48 21 23 23.3
003B5CE8 2019-03-07 17:05:31 21.1 23 22.6
003B5CE8 2019-03-07 16:33:16 21.1 23 22.9
003B5CE8 2019-03-07 16:01:00 21.1 23 22.9
003B5CE8 2019-03-07 15:28:43 21.1 23 23
003B5CE8 2019-03-07 14:56:27 21.1 23 23
003B5CE8 2019-03-07 14:24:11 21 22 23.3
003B5CE8 2019-03-07 13:51:55 21 21 23.6
003B5CE8 2019-03-07 13:19:39 20.9 21 23.7
003B5CE8 2019-03-07 12:47:23 20.8 21 23.9
003B5CE8 2019-03-07 12:15:06 20.8 20 23.9
003B5CE8 2019-03-07 11:42:49 20.8 20 24.3
003B5CE8 2019-03-07 11:10:32 20.8 20 24.3
003B5CE8 2019-03-07 10:38:15 20.8 19 24.5
003B5CE8 2019-03-07 10:06:00 20.7 19 24.6
003B5CE8 2019-03-07 09:33:43 20.7 18 24.6
003B5CE8 2019-03-07 09:01:26 20.7 17 24.5
003B5CE8 2019-03-07 08:29:09 20.7 17 24.5
003B5CE8 2019-03-07 07:56:51 20.7 16 24.5
003B5CE8 2019-03-07 07:24:35 20.7 16 24.4
003B5CE8 2019-03-07 06:52:19 20.7 16 24.3
003B5CE8 2019-03-07 06:20:02 20.7 16 24.4
003B5CE8 2019-03-07 05:47:46 20.7 15 24.3
003B5CE8 2019-03-07 05:14:56 20.6 15 24.4
003B5CE8 2019-03-07 04:42:38 20.7 15 24.3
003B5CE8 2019-03-07 04:10:23 20.6 15 24.2
003B5CE8 2019-03-07 03:38:08 20.6 14 24
003B5CE8 2019-03-07 03:05:51 20.7 14 24
003B5CE8 2019-03-07 02:33:35 20.7 14 23.9
003B5CE8 2019-03-07 02:01:18 20.7 14 23.8
003B5CE8 2019-03-07 01:29:02 20.7 13 23.5
003B5CE8 2019-03-07 00:56:45 20.7 13 23.2
003B5CE8 2019-03-07 00:24:28 20.6 13 23
003B5CE8 2019-03-06 23:52:13 20.6 13 22.8
003B5CE8 2019-03-06 23:19:57 20.6 13 22.7
003B5CE8 2019-03-06 22:47:41 20.6 13 22.3
003B5CE8 2019-03-06 22:15:26 20.6 12 22.3
003B5CE8 2019-03-06 21:43:10 20.7 12 22.1
003B5CE8 2019-03-06 21:10:53 20.7 12 21.9
003B5CE8 2019-03-06 20:38:36 20.7 12 21.8
003B5CE8 2019-03-06 20:06:19 20.7 12 22.1
003B5CE8 2019-03-06 19:34:04 20.7 12 22.8
003B5CE8 2019-03-06 19:01:48 20.7 12 22.1
003B5CE8 2019-03-06 18:29:31 20.8 11 22.4
003B5CE8 2019-03-06 17:57:15 20.8 11 22.6
003B5CE8 2019-03-06 17:24:58 20.9 11 22.6
003B5CE8 2019-03-06 16:52:42 21 11 22.8
003B5CE8 2019-03-06 16:20:25 21 11 22.3
003B5CE8 2019-03-06 15:48:09 21 11 22.2
003B5CE8 2019-03-06 15:15:53 21.1 11 22.4
003B5CE8 2019-03-06 14:43:38 21 11 22.4
003B5CE8 2019-03-06 14:11:22 20.8 11 22.6
003B5CE8 2019-03-06 13:39:07 20.7 10 22.7
003B5CE8 2019-03-06 13:06:51 20.7 11 22.9
003B5CE8 2019-03-06 12:34:37 20.7 11 23.7
003B5CE8 2019-03-06 12:02:21 20.7 11 23.8
003B5CE8 2019-03-06 11:30:05 20.7 11 24
003B5CE8 2019-03-06 10:57:49 20.7 11 24
003B5CE8 2019-03-06 10:25:32 20.7 11 24.2
003B5CE8 2019-03-06 09:53:15 20.5 11 24.4
003B5CE8 2019-03-06 09:20:59 20.3 11 24.4
003B5CE8 2019-03-06 08:48:42 20.3 11 24.4
003B5CE8 2019-03-06 08:16:26 20.3 11 24.9
003B5CE8 2019-03-06 07:44:08 20.4 12 25.1
003B5CE8 2019-03-06 07:11:53 20.4 12 25
003B5CE8 2019-03-06 06:39:36 20.4 12 24.9
003B5CE8 2019-03-06 06:07:20 20.4 12 24.9
003B5CE8 2019-03-06 05:35:03 20.4 12 24.8
003B5CE8 2019-03-06 05:02:47 20.4 12 24.7
003B5CE8 2019-03-06 04:30:30 20.4 12 24.6
003B5CE8 2019-03-06 03:58:14 20.4 12 24.5
003B5CE8 2019-03-06 03:25:58 20.5 12 24.4
003B5CE8 2019-03-06 02:53:41 20.5 12 24.5
003B5CE8 2019-03-06 02:20:51 20.5 12 24.3
003B5CE8 2019-03-06 01:48:34 20.5 12 24.5
003B5CE8 2019-03-06 01:16:17 20.5 13 24.6
003B5CE8 2019-03-06 00:44:02 20.6 13 25
003B5CE8 2019-03-06 00:11:47 20.6 13 25.1
003B5CE8 2019-03-05 23:39:28 20.6 13 24.7
003B5CE8 2019-03-05 23:07:11 20.6 13 24.6
003B5CE8 2019-03-05 22:34:55 20.7 13 24.6
003B5CE8 2019-03-05 22:02:38 20.7 13 24.6
003B5CE8 2019-03-05 21:30:22 20.7 13 24.6
003B5CE8 2019-03-05 20:58:05 20.8 13 24.4
003B5CE8 2019-03-05 20:25:48 20.8 13 24.4
003B5CE8 2019-03-05 19:53:31 20.8 12 24.5
003B5CE8 2019-03-05 19:21:15 20.8 12 23.9
003B5CE8 2019-03-05 18:48:57 20.8 12 23.7
003B5CE8 2019-03-05 18:16:40 20.8 12 23.7
003B5CE8 2019-03-05 17:44:23 20.9 13 23.7
003B5CE8 2019-03-05 17:12:06 21.1 13 23.3
003B5CE8 2019-03-05 16:39:48 21.2 14 23.4
003B5CE8 2019-03-05 16:07:31 21.3 14 23.4
003B5CE8 2019-03-05 15:35:13 21.3 15 23.6
003B5CE8 2019-03-05 15:02:55 21 16 23.7
003B5CE8 2019-03-05 14:30:37 20.7 16 23.7
003B5CE8 2019-03-05 13:58:19 20.7 16 23.8
003B5CE8 2019-03-05 13:26:01 20.7 16 24.1
003B5CE8 2019-03-05 12:53:43 20.7 17 24.1
003B5CE8 2019-03-05 12:21:27 20.6 17 24.1
003B5CE8 2019-03-05 11:49:08 20.6 17 24
003B5CE8 2019-03-05 11:16:51 20.6 17 23.3
003B5CE8 2019-03-05 10:44:34 20.5 17 23.4
003B5CE8 2019-03-05 10:12:17 20.5 18 23.2
003B5CE8 2019-03-05 09:40:01 20.5 18 23.8
003B5CE8 2019-03-05 08:35:28 20.4 18 23.9
003B5CE8 2019-03-05 08:03:10 20.4 19 23.8
003B5CE8 2019-03-05 07:30:52 20.5 19 23.9
003B5CE8 2019-03-05 06:58:37 20.4 19 23.9
003B5CE8 2019-03-05 06:26:18 20.4 19 23.9
003B5CE8 2019-03-05 05:54:00 20.5 19 23.9
003B5CE8 2019-03-05 05:21:44 20.5 19 23.8
003B5CE8 2019-03-05 04:49:26 20.4 19 23.8
003B5CE8 2019-03-05 04:17:09 20.4 19 23.8
003B5CE8 2019-03-05 03:44:52 20.5 19 23.6
003B5CE8 2019-03-05 03:12:35 20.4 19 23.6
003B5CE8 2019-03-05 02:40:18 20.5 19 23.6
003B5CE8 2019-03-05 02:08:01 20.5 19 23.5
003B5CE8 2019-03-05 01:35:44 20.5 19 23.3
003B5CE8 2019-03-05 01:03:27 20.5 19 23.3
003B5CE8 2019-03-05 00:31:10 20.5 19 23.1
003B5CE8 2019-03-04 23:58:54 20.4 19 22.9
003B5CE8 2019-03-04 23:26:04 20.5 19 22.5
003B5CE8 2019-03-04 22:53:48 20.5 19 22.3
003B5CE8 2019-03-04 22:21:32 20.5 19 22.4
003B5CE8 2019-03-04 21:49:16 20.5 19 22.1
003B5CE8 2019-03-04 21:17:00 20.5 19 22.3
003B5CE8 2019-03-04 20:44:43 20.5 19 21.3
003B5CE8 2019-03-04 20:12:27 20.5 18 21.2
003B5CE8 2019-03-04 19:40:11 20.5 18 21.3
003B5CE8 2019-03-04 19:07:55 20.5 18 22.3
003B5CE8 2019-03-04 18:35:40 20.5 18 22.3
003B5CE8 2019-03-04 18:03:23 20.5 18 22.3
003B5CE8 2019-03-04 17:31:08 20.6 18 22.4
003B5CE8 2019-03-04 16:58:54 20.6 18 22.4
003B5CE8 2019-03-04 16:26:36 20.6 18 22.7
003B5CE8 2019-03-04 15:54:19 20.6 18 22.8
003B5CE8 2019-03-04 15:22:03 20.5 18 22.7
003B5CE8 2019-03-04 14:49:48 20.5 17 22.9
003B5CE8 2019-03-04 14:17:30 20.5 17 22.7
003B5CE8 2019-03-04 13:45:12 20.5 17 22.9
003B5CE8 2019-03-04 13:12:56 20.4 17 23
003B5CE8 2019-03-04 12:40:39 20.4 17 23
003B5CE8 2019-03-04 12:08:22 20.4 17 23.2
003B5CE8 2019-03-04 11:36:06 20.4 17 23.2
003B5CE8 2019-03-04 11:03:49 20.3 17 23.2
003B5CE8 2019-03-04 10:31:33 20.3 17 23.3
003B5CE8 2019-03-04 09:59:15 20.2 17 23.4
003B5CE8 2019-03-04 09:26:57 20.1 17 23.5
003B5CE8 2019-03-04 08:54:40 20.1 17 24.1
003B5CE8 2019-03-04 08:22:22 20 18 24.1
003B5CE8 2019-03-04 07:50:05 20 18 24.1
003B5CE8 2019-03-04 07:17:49 20 18 24.1
003B5CE8 2019-03-04 06:45:33 20 18 24.1
003B5CE8 2019-03-04 06:13:17 20 18 24.1
003B5CE8 2019-03-04 05:41:00 20 18 23.6
003B5CE8 2019-03-04 05:08:43 20 18 23.5
003B5CE8 2019-03-04 04:36:26 20 18 23.6
003B5CE8 2019-03-04 04:04:09 20 18 23.5
003B5CE8 2019-03-04 03:31:51 20 18 23.5
003B5CE8 2019-03-04 02:59:34 20 18 23.4
003B5CE8 2019-03-04 02:27:19 20 18 23.3
003B5CE8 2019-03-04 01:55:02 20 18 23.4
003B5CE8 2019-03-04 01:22:45 20 17 23.4
003B5CE8 2019-03-04 00:50:28 20 17 23.7
003B5CE8 2019-03-04 00:18:11 20 17 23.6
003B5CE8 2019-03-03 23:45:55 20.1 17 23.6
003B5CE8 2019-03-03 23:13:37 20 17 23.7
003B5CE8 2019-03-03 22:41:22 20 17 23.5
003B5CE8 2019-03-03 22:09:05 20 17 23.5
003B5CE8 2019-03-03 21:36:48 20 17 23.4
003B5CE8 2019-03-03 21:04:31 20 17 23.4
003B5CE8 2019-03-03 20:31:43 20 18 23.5
003B5CE8 2019-03-03 19:59:28 20 18 23
003B5CE8 2019-03-03 19:27:12 20.1 18 23.1
003B5CE8 2019-03-03 18:54:55 20.1 18 23.1
003B5CE8 2019-03-03 18:22:39 20.1 18 23.1
003B5CE8 2019-03-03 17:50:22 20.1 18 23.8
003B5CE8 2019-03-03 17:18:05 20.1 18 23.8
003B5CE8 2019-03-03 16:45:49 20.1 18 23.7
003B5CE8 2019-03-03 16:13:32 20.2 18 23.8
003B5CE8 2019-03-03 15:41:16 20.2 18 24.2
003B5CE8 2019-03-03 15:09:00 20.2 18 24.2
003B5CE8 2019-03-03 14:36:44 20.2 18 24.2
003B5CE8 2019-03-03 14:04:28 20.2 18 24.2
003B5CE8 2019-03-03 13:32:12 20.1 18 24.2
003B5CE8 2019-03-03 12:59:55 20.1 18 24.1
003B5CE8 2019-03-03 12:27:40 20.1 18 24
003B5CE8 2019-03-03 11:55:23 20.1 18 23.8
003B5CE8 2019-03-03 11:23:07 20.1 18 23.8
003B5CE8 2019-03-03 10:50:51 20.1 18 23.7
003B5CE8 2019-03-03 10:18:36 20.1 18 23.7
003B5CE8 2019-03-03 09:46:20 20.1 18 23.6
003B5CE8 2019-03-03 09:14:03 20.1 18 24.3
003B5CE8 2019-03-03 08:41:46 20.1 19 24.4
003B5CE8 2019-03-03 08:09:30 20.2 19 24.5
003B5CE8 2019-03-03 07:37:14 20.1 19 24.5
003B5CE8 2019-03-03 07:04:58 20.1 19 24.3
003B5CE8 2019-03-03 06:32:42 20.2 19 24.2
003B5CE8 2019-03-03 06:00:26 20.2 19 24.1
003B5CE8 2019-03-03 05:28:09 20.2 19 24.2
003B5CE8 2019-03-03 04:55:52 20.2 19 24.2
003B5CE8 2019-03-03 04:23:34 20.2 18 23.5
003B5CE8 2019-03-03 03:51:17 20.2 19 23.3
003B5CE8 2019-03-03 03:19:01 20.2 18 23.4
003B5CE8 2019-03-03 02:46:44 20.2 18 23.2
003B5CE8 2019-03-03 02:14:27 20.2 18 23.2
003B5CE8 2019-03-03 01:42:10 20.3 18 23.4
003B5CE8 2019-03-03 01:09:53 20.3 18 23.5
003B5CE8 2019-03-03 00:37:37 20.3 18 23.4
003B5CE8 2019-03-03 00:05:20 20.3 18 23.4
003B5CE8 2019-03-02 23:33:05 20.3 18 23.5
003B5CE8 2019-03-02 23:00:47 20.3 18 23.6
003B5CE8 2019-03-02 22:28:30 20.3 18 23.7
003B5CE8 2019-03-02 21:56:13 20.3 18 23.8
003B5CE8 2019-03-02 21:23:56 20.3 18 23.7
003B5CE8 2019-03-02 20:51:40 20.3 18 23.9
003B5CE8 2019-03-02 20:19:22 20.3 18 23.9
003B5CE8 2019-03-02 19:47:05 20.4 18 23.2
003B5CE8 2019-03-02 19:14:49 20.4 18 23.2
003B5CE8 2019-03-02 18:42:32 20.4 17 23.1
003B5CE8 2019-03-02 18:10:15 20.4 17 23.1
003B5CE8 2019-03-02 17:37:25 20.5 17 23.5
003B5CE8 2019-03-02 17:05:09 20.5 17 23.4
003B5CE8 2019-03-02 16:32:53 20.6 17 23.3
003B5CE8 2019-03-02 16:00:35 20.7 17 23.4
003B5CE8 2019-03-02 15:28:19 20.7 17 23.5
003B5CE8 2019-03-02 14:56:02 20.4 17 23.7
003B5CE8 2019-03-02 14:23:46 20.3 17 23.7
003B5CE8 2019-03-02 13:51:30 20.4 17 23.8
003B5CE8 2019-03-02 13:19:14 20.3 17 23.2
003B5CE8 2019-03-02 12:46:58 20.3 16 23.2
003B5CE8 2019-03-02 12:14:40 20.3 16 23.1
003B5CE8 2019-03-02 11:42:23 20.3 16 23.3
003B5CE8 2019-03-02 11:10:06 20.3 16 23.4
003B5CE8 2019-03-02 10:37:48 20.3 16 23.6
003B5CE8 2019-03-02 10:05:32 20.3 16 23.7
003B5CE8 2019-03-02 09:33:15 20.3 16 23.6
003B5CE8 2019-03-02 09:00:58 20.3 16 23.5
003B5CE8 2019-03-02 08:28:42 20.3 16 23.5
003B5CE8 2019-03-02 07:56:25 20.3 15 23.6
003B5CE8 2019-03-02 07:24:08 20.4 15 23.7
003B5CE8 2019-03-02 06:51:51 20.4 15 23.9
003B5CE8 2019-03-02 06:19:34 20.4 15 24.1
003B5CE8 2019-03-02 05:47:18 20.4 15 24.1
003B5CE8 2019-03-02 05:15:00 20.4 15 24.2
003B5CE8 2019-03-02 04:42:44 20.4 15 24
003B5CE8 2019-03-02 04:10:27 20.4 15 24
003B5CE8 2019-03-02 03:38:11 20.4 14 24
003B5CE8 2019-03-02 03:05:55 20.5 14 23.9
003B5CE8 2019-03-02 02:33:38 20.4 14 23.8
003B5CE8 2019-03-02 02:01:21 20.5 14 23.7
003B5CE8 2019-03-02 01:29:03 20.6 14 23.8
003B5CE8 2019-03-02 00:56:45 20.6 14 23.8
003B5CE8 2019-03-02 00:24:28 20.6 14 23.7
003B5CE8 2019-03-01 23:52:11 20.7 13 23.7
003B5CE8 2019-03-01 23:19:54 20.7 13 23.5
003B5CE8 2019-03-01 22:47:37 20.7 13 23.4
003B5CE8 2019-03-01 22:15:20 20.8 13 23.2
003B5CE8 2019-03-01 21:43:04 20.9 13 23
003B5CE8 2019-03-01 21:10:48 21 12 22.7
003B5CE8 2019-03-01 20:38:33 21 12 22.4
003B5CE8 2019-03-01 20:06:16 21 12 22.5
003B5CE8 2019-03-01 19:33:59 20.9 12 22.5
003B5CE8 2019-03-01 19:01:43 20.9 12 22
003B5CE8 2019-03-01 18:29:25 20.9 11 21.9
003B5CE8 2019-03-01 17:57:08 21.1 12 21.8
003B5CE8 2019-03-01 17:24:52 21.2 12 21.5
003B5CE8 2019-03-01 16:52:34 21.4 13 21.5
003B5CE8 2019-03-01 16:20:17 21.5 13 21.1
003B5CE8 2019-03-01 15:48:00 21.4 13 21.1
003B5CE8 2019-03-01 15:15:42 21.4 14 21
003B5CE8 2019-03-01 14:42:53 21 14 21.1
003B5CE8 2019-03-01 14:10:35 20.9 14 21.2
003B5CE8 2019-03-01 13:38:18 20.9 15 21.7
003B5CE8 2019-03-01 13:06:01 20.9 15 21.4
003B5CE8 2019-03-01 12:33:44 21 15 21.2
003B5CE8 2019-03-01 12:01:27 21 15 22.3
003B5CE8 2019-03-01 11:29:10 21 16 22.2
003B5CE8 2019-03-01 10:56:53 21 16 22.3
003B5CE8 2019-03-01 10:24:36 20.9 16 23.1
003B5CE8 2019-03-01 09:52:20 20.8 16 23.3
003B5CE8 2019-03-01 09:20:03 20.6 16 23.4
003B5CE8 2019-03-01 08:47:45 20.5 16 23.4
003B5CE8 2019-03-01 08:15:28 20.4 17 23.6
003B5CE8 2019-03-01 07:43:10 20.5 17 23.4
003B5CE8 2019-03-01 07:10:53 20.5 18 23.5
003B5CE8 2019-03-01 06:38:36 20.5 18 23.6
003B5CE8 2019-03-01 06:06:19 20.5 18 23.6
003B5CE8 2019-03-01 05:34:01 20.6 18 23.7
003B5CE8 2019-03-01 05:01:44 20.5 18 23.5
003B5CE8 2019-03-01 04:29:27 20.6 19 23.5
003B5CE8 2019-03-01 03:57:10 20.5 19 23.7
003B5CE8 2019-03-01 03:24:53 20.6 19 23.8
003B5CE8 2019-03-01 02:52:36 20.6 19 23.9
003B5CE8 2019-03-01 02:20:20 20.6 20 23.9
003B5CE8 2019-03-01 01:48:02 20.6 20 23.9
003B5CE8 2019-03-01 01:15:44 20.6 20 23.9
003B5CE8 2019-03-01 00:43:27 20.6 21 23.8
003B5CE8 2019-03-01 00:11:10 20.7 21 23.7
003B5CE8 2019-02-28 23:38:52 20.7 21 23.6
003B5CE8 2019-02-28 23:06:34 20.7 22 23.5
003B5CE8 2019-02-28 22:34:17 20.7 22 22.7
003B5CE8 2019-02-28 22:02:01 20.7 22 22.7
003B5CE8 2019-02-28 21:29:43 20.7 23 22.6
003B5CE8 2019-02-28 20:57:25 20.8 23 22
003B5CE8 2019-02-28 20:25:07 20.8 23 22
003B5CE8 2019-02-28 19:52:50 20.8 23 22
003B5CE8 2019-02-28 19:20:33 20.9 23 22.3
003B5CE8 2019-02-28 18:48:15 20.9 23 22.3
003B5CE8 2019-02-28 18:15:58 21 24 22.4
003B5CE8 2019-02-28 17:43:40 21.2 25 22.6
003B5CE8 2019-02-28 17:11:23 21.3 26 22.9
003B5CE8 2019-02-28 16:39:05 21.5 27 23
003B5CE8 2019-02-28 16:06:49 21.5 26 23.1
003B5CE8 2019-02-28 15:34:33 21.4 26 23.4
003B5CE8 2019-02-28 15:02:16 21.3 25 23.4
003B5CE8 2019-02-28 14:29:59 21.3 25 23.4
003B5CE8 2019-02-28 13:57:43 21.3 25 23.4
003B5CE8 2019-02-28 13:25:26 21.3 25 23.4
003B5CE8 2019-02-28 12:53:10 21.3 25 23.5
003B5CE8 2019-02-28 12:20:52 21.3 25 23.3
003B5CE8 2019-02-28 11:48:02 21.2 25 23.6
003B5CE8 2019-02-28 11:15:45 21.2 25 23.6
003B5CE8 2019-02-28 10:43:27 21.1 24 23.7
003B5CE8 2019-02-28 09:38:52 20.8 23 24.1
003B5CE8 2019-02-28 09:06:35 20.8 23 24.1
003B5CE8 2019-02-28 08:34:19 20.7 23 24.2
003B5CE8 2019-02-28 08:02:02 20.7 22 24.1
003B5CE8 2019-02-28 07:29:45 20.7 22 24.1
003B5CE8 2019-02-28 06:57:29 20.7 22 24.2
003B5CE8 2019-02-28 06:25:12 20.7 22 24.2
003B5CE8 2019-02-28 05:52:56 20.7 22 24
003B5CE8 2019-02-28 05:20:40 20.7 22 24
003B5CE8 2019-02-28 04:48:23 20.7 22 23.9
003B5CE8 2019-02-28 04:16:05 20.7 22 23.6
003B5CE8 2019-02-28 03:43:48 20.7 22 23.6
003B5CE8 2019-02-28 03:11:32 20.7 22 23.5
003B5CE8 2019-02-28 02:39:15 20.7 22 23.2
003B5CE8 2019-02-28 02:06:58 20.8 22 23.2
003B5CE8 2019-02-28 01:34:41 20.7 22 23
003B5CE8 2019-02-28 01:02:25 20.8 22 23
003B5CE8 2019-02-28 00:30:09 20.8 22 23.1
003B5CE8 2019-02-27 23:57:52 20.8 22 23
003B5CE8 2019-02-27 23:25:37 20.8 22 22.9
003B5CE8 2019-02-27 22:53:21 20.9 22 22.8
003B5CE8 2019-02-27 22:21:05 20.9 23 22.9
003B5CE8 2019-02-27 21:48:50 20.9 23 22.7
003B5CE8 2019-02-27 21:16:35 20.9 23 22.6
003B5CE8 2019-02-27 20:44:19 21 23 22.5
003B5CE8 2019-02-27 20:12:01 21 23 22.1
003B5CE8 2019-02-27 19:39:44 21.1 23 22.1
003B5CE8 2019-02-27 19:07:27 21.1 23 22.2
003B5CE8 2019-02-27 18:35:12 21.2 23 22.1
003B5CE8 2019-02-27 18:02:56 21.4 24 22.1
003B5CE8 2019-02-27 17:30:40 21.7 25 21.9
003B5CE8 2019-02-27 16:58:23 21.8 25 21.7
003B5CE8 2019-02-27 16:26:07 21.8 26 21.8
003B5CE8 2019-02-27 15:53:50 21.8 26 22
003B5CE8 2019-02-27 15:21:33 21.7 26 22.1
003B5CE8 2019-02-27 14:49:17 21.6 27 22.3
003B5CE8 2019-02-27 14:17:01 21.4 26 22.2
003B5CE8 2019-02-27 13:44:44 21.3 26 22.3
003B5CE8 2019-02-27 13:12:28 21.2 25 22.3
003B5CE8 2019-02-27 12:40:14 21.3 25 22.6
003B5CE8 2019-02-27 12:07:56 21.3 26 22.6
003B5CE8 2019-02-27 11:35:40 21.2 25 22.5
003B5CE8 2019-02-27 11:03:25 21.2 26 22.3
003B5CE8 2019-02-27 10:31:08 21.1 26 22.5
003B5CE8 2019-02-27 09:58:52 21.1 25 22.7
003B5CE8 2019-02-27 09:26:35 20.9 24 22.7
003B5CE8 2019-02-27 08:53:45 20.8 24 23
003B5CE8 2019-02-27 08:21:29 20.8 24 23.2
003B5CE8 2019-02-27 07:49:12 20.8 24 23.1
003B5CE8 2019-02-27 07:16:55 20.8 24 23.2
003B5CE8 2019-02-27 06:44:37 20.8 24 23.3
003B5CE8 2019-02-27 06:12:20 20.9 24 23.1
003B5CE8 2019-02-27 05:40:03 20.9 24 23.2
003B5CE8 2019-02-27 05:07:45 20.9 24 23.3
003B5CE8 2019-02-27 04:35:28 20.9 24 23.3
003B5CE8 2019-02-27 04:03:11 20.9 24 23.3
003B5CE8 2019-02-27 03:30:55 20.9 24 23.3
003B5CE8 2019-02-27 02:58:39 20.9 24 23.4
003B5CE8 2019-02-27 02:26:22 20.9 24 23.2
003B5CE8 2019-02-27 01:54:05 21 24 23.2
003B5CE8 2019-02-27 01:21:48 21 24 23.4
003B5CE8 2019-02-27 00:49:30 21 24 23.4
003B5CE8 2019-02-27 00:17:13 21.1 24 23.3
003B5CE8 2019-02-26 23:44:57 21.1 24 23.1
003B5CE8 2019-02-26 23:12:41 21.1 24 23
003B5CE8 2019-02-26 22:40:25 21.2 24 23.1
003B5CE8 2019-02-26 22:08:07 21.2 24 23.8
003B5CE8 2019-02-26 21:35:51 21.3 24 24.3
003B5CE8 2019-02-26 21:03:35 21.3 24 24.8
003B5CE8 2019-02-26 20:31:17 21.4 24 25.2
003B5CE8 2019-02-26 19:59:00 21.4 24 25.5
003B5CE8 2019-02-26 19:26:43 21.5 24 25.9
003B5CE8 2019-02-26 18:54:26 21.6 24 26.2
003B5CE8 2019-02-26 18:22:10 21.7 24 26.6
003B5CE8 2019-02-26 17:49:52 21.8 24 26.7
003B5CE8 2019-02-26 17:17:36 22 24 27
003B5CE8 2019-02-26 16:45:20 22.1 25 27.3
003B5CE8 2019-02-26 16:13:04 22 25 27.5
003B5CE8 2019-02-26 15:40:48 22 25 27.7
003B5CE8 2019-02-26 15:08:31 21.9 25 27.9
003B5CE8 2019-02-26 14:36:14 21.6 25 28.2
003B5CE8 2019-02-26 14:03:58 21.6 25 28.4
003B5CE8 2019-02-26 13:31:41 21.6 25 28.5
003B5CE8 2019-02-26 12:59:25 21.6 25 28.7
003B5CE8 2019-02-26 12:27:08 21.5 25 28.9
003B5CE8 2019-02-26 11:54:52 21.5 25 29.1
003B5CE8 2019-02-26 11:22:36 21.4 25 29.2
003B5CE8 2019-02-26 10:50:18 21.4 25 29.4
003B5CE8 2019-02-26 10:18:00 21.1 25 29.5
003B5CE8 2019-02-26 09:45:44 21 24 29.6
003B5CE8 2019-02-26 09:13:28 20.9 24 29.8
003B5CE8 2019-02-26 08:41:12 20.8 24 29.8
003B5CE8 2019-02-26 08:08:56 20.8 24 29.8
003B5CE8 2019-02-26 07:36:38 20.8 23 29.8
003B5CE8 2019-02-26 07:04:23 20.8 23 29.8
003B5CE8 2019-02-26 06:32:06 20.8 23 29.7
003B5CE8 2019-02-26 05:59:18 20.8 23 29.7
003B5CE8 2019-02-26 05:27:02 20.8 23 29.5
003B5CE8 2019-02-26 04:54:47 20.8 23 29.5
003B5CE8 2019-02-26 04:22:31 20.8 23 29.3
003B5CE8 2019-02-26 03:50:16 20.8 23 29.1
003B5CE8 2019-02-26 03:18:00 20.8 22 28.9
003B5CE8 2019-02-26 02:45:43 20.9 22 28.7
003B5CE8 2019-02-26 02:13:27 20.9 22 28.4
003B5CE8 2019-02-26 01:41:09 20.9 22 28.2
003B5CE8 2019-02-26 01:08:52 20.9 22 28
003B5CE8 2019-02-26 00:36:36 20.9 22 27.7
003B5CE8 2019-02-26 00:04:19 21 22 27.4
003B5CE8 2019-02-25 23:32:03 21 22 27.2
003B5CE8 2019-02-25 22:59:46 21 22 26.9
003B5CE8 2019-02-25 22:27:29 21 22 26.6
003B5CE8 2019-02-25 21:55:14 21.1 22 26.2
003B5CE8 2019-02-25 21:22:57 21.2 21 26.2
003B5CE8 2019-02-25 20:50:41 21.2 21 25.8
003B5CE8 2019-02-25 20:18:24 21.3 21 25.4
003B5CE8 2019-02-25 19:46:08 21.3 21 25
003B5CE8 2019-02-25 19:13:52 21.4 21 24.6
003B5CE8 2019-02-25 18:41:34 21.5 21 24.1
003B5CE8 2019-02-25 18:09:18 21.6 21 23.5
003B5CE8 2019-02-25 17:37:01 21.6 22 23.5
003B5CE8 2019-02-25 17:04:43 21.6 22 22.9
003B5CE8 2019-02-25 16:32:26 21.7 22 22.2
003B5CE8 2019-02-25 16:00:10 21.8 22 22.1
003B5CE8 2019-02-25 15:27:53 21.8 23 22.1
003B5CE8 2019-02-25 14:55:36 21.7 23 22.3
003B5CE8 2019-02-25 14:23:21 21.6 23 22.8
003B5CE8 2019-02-25 13:51:04 21.5 23 22.7
003B5CE8 2019-02-25 13:18:48 21.4 22 22.8
003B5CE8 2019-02-25 12:46:30 21.2 22 23
003B5CE8 2019-02-25 12:14:14 21.2 22 23.1
003B5CE8 2019-02-25 11:42:00 21.2 23 23
003B5CE8 2019-02-25 11:09:42 21.1 23 23.5
003B5CE8 2019-02-25 10:37:25 21 23 23.3
003B5CE8 2019-02-25 10:05:09 20.8 23 23.4
003B5CE8 2019-02-25 09:32:52 20.7 22 23.5
003B5CE8 2019-02-25 09:00:35 20.6 22 23.6
003B5CE8 2019-02-25 08:28:17 20.5 22 23.5
003B5CE8 2019-02-25 07:56:00 20.5 22 23.6
003B5CE8 2019-02-25 07:23:43 20.5 22 23.7
003B5CE8 2019-02-25 06:51:26 20.6 22 23.5
003B5CE8 2019-02-25 06:19:10 20.6 22 23.3
003B5CE8 2019-02-25 05:46:53 20.6 22 23.1
003B5CE8 2019-02-25 05:14:37 20.6 22 23
003B5CE8 2019-02-25 04:42:21 20.6 22 23
003B5CE8 2019-02-25 04:10:04 20.6 22 22.9
003B5CE8 2019-02-25 03:37:48 20.6 23 22.8
003B5CE8 2019-02-25 03:04:58 20.6 23 22.8
003B5CE8 2019-02-25 02:32:41 20.6 23 22.6
003B5CE8 2019-02-25 02:00:26 20.6 23 22.4
003B5CE8 2019-02-25 01:28:10 20.6 23 22.4
003B5CE8 2019-02-25 00:55:53 20.6 23 22.4
003B5CE8 2019-02-25 00:23:36 20.6 23 22.2
003B5CE8 2019-02-24 23:51:19 20.6 24 22.1
003B5CE8 2019-02-24 23:19:02 20.6 24 22.3
003B5CE8 2019-02-24 22:46:47 20.7 24 22.4
003B5CE8 2019-02-24 22:14:30 20.7 24 22
003B5CE8 2019-02-24 21:42:14 20.7 24 22
003B5CE8 2019-02-24 21:09:58 20.7 24 21.7
003B5CE8 2019-02-24 20:37:42 20.7 24 21.9
003B5CE8 2019-02-24 20:05:27 20.7 24 21.9
003B5CE8 2019-02-24 19:33:10 20.7 24 21.8
003B5CE8 2019-02-24 19:00:55 20.7 24 21.7
003B5CE8 2019-02-24 18:28:39 20.7 24 21.4
003B5CE8 2019-02-24 17:56:22 20.8 24 21.6
003B5CE8 2019-02-24 17:24:05 20.7 23 21.8
003B5CE8 2019-02-24 16:51:50 20.7 23 21.9
003B5CE8 2019-02-24 16:19:32 20.7 23 22.3
003B5CE8 2019-02-24 15:47:15 20.7 23 22.3
003B5CE8 2019-02-24 15:14:58 20.7 23 22.3
003B5CE8 2019-02-24 14:42:42 20.7 23 22.2
003B5CE8 2019-02-24 14:10:25 20.7 23 22.2
003B5CE8 2019-02-24 13:38:08 20.7 23 22.2
003B5CE8 2019-02-24 13:05:51 20.7 23 22.1
003B5CE8 2019-02-24 12:33:36 20.7 23 21.9
003B5CE8 2019-02-24 12:01:20 20.7 22 22.8
003B5CE8 2019-02-24 11:29:04 20.7 22 22.9
003B5CE8 2019-02-24 10:56:46 20.7 22 23.1
003B5CE8 2019-02-24 10:24:30 20.7 22 23.3
003B5CE8 2019-02-24 09:52:13 20.7 22 23.3
003B5CE8 2019-02-24 09:19:57 20.7 22 23.2
003B5CE8 2019-02-24 08:47:39 20.7 22 23.3
003B5CE8 2019-02-24 08:15:23 20.7 22 23.3
003B5CE8 2019-02-24 07:43:07 20.7 22 23.3
003B5CE8 2019-02-24 07:10:51 20.7 22 23.8
003B5CE8 2019-02-24 06:38:34 20.7 22 23.9
003B5CE8 2019-02-24 06:06:17 20.8 22 24
003B5CE8 2019-02-24 05:34:00 20.8 22 24
003B5CE8 2019-02-24 05:01:45 20.8 22 23.9
003B5CE8 2019-02-24 04:29:29 20.8 22 23.8
003B5CE8 2019-02-24 03:57:12 20.8 22 24
003B5CE8 2019-02-24 03:24:56 20.8 22 24
003B5CE8 2019-02-24 02:52:39 20.8 22 23.7
003B5CE8 2019-02-24 02:20:23 20.8 21 23.5
003B5CE8 2019-02-24 01:48:08 20.8 21 23.4
003B5CE8 2019-02-24 01:15:52 20.9 21 23.4
003B5CE8 2019-02-24 00:43:38 20.9 21 23.6
003B5CE8 2019-02-24 00:10:48 20.9 21 23.6
003B5CE8 2019-02-23 23:38:32 20.9 21 23.8
003B5CE8 2019-02-23 23:06:15 20.9 21 23.2
003B5CE8 2019-02-23 22:33:59 20.9 21 23.2
003B5CE8 2019-02-23 22:01:41 21 21 23.1
003B5CE8 2019-02-23 21:29:24 21 20 22.9
003B5CE8 2019-02-23 20:57:07 21 20 22.9
003B5CE8 2019-02-23 20:24:50 21.1 20 22.8
003B5CE8 2019-02-23 19:52:33 21.1 20 22.7
003B5CE8 2019-02-23 19:20:17 21.1 20 23
003B5CE8 2019-02-23 18:48:00 21.2 19 23.1
003B5CE8 2019-02-23 18:15:43 21.2 19 22.2
003B5CE8 2019-02-23 17:43:25 21.2 19 22.5
003B5CE8 2019-02-23 17:11:08 21.2 18 22.4
003B5CE8 2019-02-23 16:38:50 21.2 18 22.5
003B5CE8 2019-02-23 16:06:33 21.2 18 22.7
003B5CE8 2019-02-23 15:34:16 21.1 18 22.9
003B5CE8 2019-02-23 15:02:00 20.9 17 22.5
003B5CE8 2019-02-23 14:29:43 20.8 17 22.5
003B5CE8 2019-02-23 13:57:26 20.8 17 22.5
003B5CE8 2019-02-23 13:25:09 20.8 17 22.7
003B5CE8 2019-02-23 12:52:53 20.8 17 23
003B5CE8 2019-02-23 12:20:36 20.8 17 23
003B5CE8 2019-02-23 11:48:19 20.8 16 22.9
003B5CE8 2019-02-23 11:16:04 20.8 16 22.9
003B5CE8 2019-02-23 10:43:47 20.8 16 22.6
003B5CE8 2019-02-23 10:11:29 20.8 16 22.6
003B5CE8 2019-02-23 09:39:13 20.8 16 22.4
003B5CE8 2019-02-23 09:06:57 20.8 15 22.3
003B5CE8 2019-02-23 08:34:40 20.8 15 22.4
003B5CE8 2019-02-23 08:02:22 20.8 15 22.5
003B5CE8 2019-02-23 07:30:05 20.8 15 23.2
003B5CE8 2019-02-23 06:57:49 20.8 14 23.2
003B5CE8 2019-02-23 06:25:33 20.8 14 23.3
003B5CE8 2019-02-23 05:53:16 20.8 14 23.1
003B5CE8 2019-02-23 05:20:59 20.8 14 23.1
003B5CE8 2019-02-23 04:48:42 20.7 13 23
003B5CE8 2019-02-23 04:16:24 20.8 13 22.7
003B5CE8 2019-02-23 03:44:07 20.8 13 22.7
003B5CE8 2019-02-23 03:11:51 20.8 13 22.7
003B5CE8 2019-02-23 02:39:35 20.8 12 22.8
003B5CE8 2019-02-23 02:07:18 20.8 12 22.8
003B5CE8 2019-02-23 01:35:02 20.8 12 22.8
003B5CE8 2019-02-23 01:02:44 20.8 12 22.9
003B5CE8 2019-02-23 00:30:27 20.8 12 22.9
003B5CE8 2019-02-22 23:58:11 20.8 12 22.9
003B5CE8 2019-02-22 23:25:55 20.9 11 22.7
003B5CE8 2019-02-22 22:53:38 20.9 11 22.9
003B5CE8 2019-02-22 22:21:22 21 11 22.8
003B5CE8 2019-02-22 21:49:05 21 11 22.9
003B5CE8 2019-02-22 21:16:15 21 11 23.3
003B5CE8 2019-02-22 21:05:22 21 11 23.5
003B5CE8 2019-02-22 20:54:32 21 11 24.2
003B5CE8 2019-02-22 20:43:40 21 11 24.2
003B5CE8 2019-02-22 20:32:48 21 11 24.3
003B5CE8 2019-02-22 20:21:57 21 11 23.7
003B5CE8 2019-02-22 20:11:07 21 11 23.8
003B5CE8 2019-02-22 20:00:14 21 11 24.3
003B5CE8 2019-02-22 19:49:21 21 11 24.4
003B5CE8 2019-02-22 19:38:30 21.1 11 24.3
003B5CE8 2019-02-22 19:27:38 21.1 11 24.4
003B5CE8 2019-02-22 19:16:47 21.1 11 24.9
003B5CE8 2019-02-22 19:05:55 21.1 11 24.9
003B5CE8 2019-02-22 18:55:03 21.1 11 24.9
003B5CE8 2019-02-22 18:44:11 21.1 11 24.7
003B5CE8 2019-02-22 18:33:19 21.2 11 24.6
003B5CE8 2019-02-22 18:22:27 21.2 11 24.7
003B5CE8 2019-02-22 18:11:35 21.2 11 24.6
003B5CE8 2019-02-22 18:00:43 21.2 11 24.7
003B5CE8 2019-02-22 17:49:53 21.2 11 24.6
003B5CE8 2019-02-22 17:39:00 21.2 11 24.5
003B5CE8 2019-02-22 17:28:08 21.3 11 24.5
003B5CE8 2019-02-22 17:17:17 21.3 11 24.5
003B5CE8 2019-02-22 17:06:25 21.3 11 24.4
003B5CE8 2019-02-22 16:55:34 21.3 11 24.5
003B5CE8 2019-02-22 16:44:42 21.3 11 24.3
003B5CE8 2019-02-22 16:33:51 21.4 11 24.2
003B5CE8 2019-02-22 16:22:59 21.3 12 23.6
003B5CE8 2019-02-22 16:12:08 21.3 12 23.4
003B5CE8 2019-02-22 16:01:16 21.3 12 23.4
003B5CE8 2019-02-22 15:50:24 21.3 12 23.2
003B5CE8 2019-02-22 15:39:33 21.3 12 23.2
003B5CE8 2019-02-22 15:28:41 21.2 12 22.3
003B5CE8 2019-02-22 15:17:49 21.2 12 22.3
003B5CE8 2019-02-22 15:06:58 21.1 12 22.3
003B5CE8 2019-02-22 14:56:06 21.1 12 22.2
003B5CE8 2019-02-22 14:45:15 21 12 21
003B5CE8 2019-02-22 14:34:23 21 12 21.2
003B5CE8 2019-02-22 14:23:31 21 12 20.9
003B5CE8 2019-02-22 14:12:40 21 12 21
003B5CE8 2019-02-22 14:01:48 20.9 12 21.1
003B5CE8 2019-02-22 13:50:55 20.9 12 20.8
003B5CE8 2019-02-22 13:40:04 20.9 12 20.7
003B5CE8 2019-02-22 13:29:12 20.9 12 20.6
003B5CE8 2019-02-22 13:18:21 20.9 12 20.5
003B5CE8 2019-02-22 13:07:29 20.9 12 20.5
003B5CE8 2019-02-22 12:56:38 20.9 12 21.5
003B5CE8 2019-02-22 12:45:46 20.9 12 21.5
003B5CE8 2019-02-22 12:34:54 20.9 12 21.5
003B5CE8 2019-02-22 12:24:03 20.8 12 21.4
003B5CE8 2019-02-22 12:12:30 20.9 12 21.6
003B5CE8 2019-02-22 12:01:38 20.8 12 21.6
003B5CE8 2019-02-22 11:50:47 20.8 12 21.5
003B5CE8 2019-02-22 11:39:56 20.8 12 21.3
003B5CE8 2019-02-22 11:29:05 20.8 12 21.3
003B5CE8 2019-02-22 11:18:14 20.8 12 21.4
003B5CE8 2019-02-22 11:07:22 20.7 12 21.4
003B5CE8 2019-02-22 10:56:30 20.7 12 21.3
003B5CE8 2019-02-22 10:45:41 20.7 12 21.4
003B5CE8 2019-02-22 10:34:47 20.6 12 21.3
003B5CE8 2019-02-22 10:23:56 20.6 12 21.2
003B5CE8 2019-02-22 10:13:05 20.5 12 21.6
003B5CE8 2019-02-22 10:02:13 20.5 12 21.5
003B5CE8 2019-02-22 09:51:22 20.5 12 21.6
003B5CE8 2019-02-22 09:40:30 20.5 12 21.8
003B5CE8 2019-02-22 09:29:37 20.5 12 22
003B5CE8 2019-02-22 09:18:45 20.4 12 22.2
003B5CE8 2019-02-22 09:07:54 20.4 12 22.2
003B5CE8 2019-02-22 08:57:02 20.4 12 22.3
003B5CE8 2019-02-22 08:46:10 20.4 12 22.3
003B5CE8 2019-02-22 08:35:19 20.4 12 22.3
003B5CE8 2019-02-22 08:24:28 20.4 12 21.4
003B5CE8 2019-02-22 08:13:36 20.4 12 21.4
003B5CE8 2019-02-22 08:02:44 20.4 12 21.8
003B5CE8 2019-02-22 07:51:53 20.4 12 21.9
003B5CE8 2019-02-22 07:41:03 20.5 12 21.5
003B5CE8 2019-02-22 07:30:11 20.4 12 21.5
003B5CE8 2019-02-22 07:19:20 20.5 12 21.5
003B5CE8 2019-02-22 07:08:28 20.5 12 21.8
003B5CE8 2019-02-22 06:57:37 20.5 12 21.6
003B5CE8 2019-02-22 06:46:46 20.5 12 21.6
003B5CE8 2019-02-22 06:35:55 20.5 12 21.6
003B5CE8 2019-02-22 06:25:03 20.5 12 21.7
003B5CE8 2019-02-22 06:14:12 20.5 12 21.6
003B5CE8 2019-02-22 06:03:20 20.5 12 21.8
003B5CE8 2019-02-22 05:52:30 20.5 12 21.8
003B5CE8 2019-02-22 05:41:38 20.5 12 21.6
003B5CE8 2019-02-22 05:30:47 20.5 12 22
003B5CE8 2019-02-22 05:19:55 20.5 12 21.8
003B5CE8 2019-02-22 05:09:04 20.5 12 22.6
003B5CE8 2019-02-22 04:58:13 20.5 12 22.5
003B5CE8 2019-02-22 04:47:21 20.5 12 22.4
003B5CE8 2019-02-22 04:36:30 20.5 12 22.4
003B5CE8 2019-02-22 04:25:39 20.5 12 22.2
003B5CE8 2019-02-22 04:14:48 20.5 12 22.2
003B5CE8 2019-02-22 04:03:57 20.5 12 22.5
003B5CE8 2019-02-22 03:53:06 20.5 12 22.3
003B5CE8 2019-02-22 03:42:15 20.6 12 23.2
003B5CE8 2019-02-22 03:31:23 20.5 12 22.9
003B5CE8 2019-02-22 03:20:32 20.6 12 23
003B5CE8 2019-02-22 03:09:08 20.6 12 23.2
003B5CE8 2019-02-22 02:58:17 20.6 12 23.3
003B5CE8 2019-02-22 02:47:25 20.6 12 23.2
003B5CE8 2019-02-22 02:36:34 20.6 12 23.1
003B5CE8 2019-02-22 02:25:43 20.6 12 23.1
003B5CE8 2019-02-22 02:14:50 20.6 12 23.1
003B5CE8 2019-02-22 02:03:58 20.6 12 23.1
003B5CE8 2019-02-22 01:53:08 20.6 12 22.9
003B5CE8 2019-02-22 01:42:16 20.6 12 22.8
003B5CE8 2019-02-22 01:31:24 20.6 12 22.8
003B5CE8 2019-02-22 01:20:34 20.6 12 22.9
003B5CE8 2019-02-22 01:09:42 20.6 12 22.6
003B5CE8 2019-02-22 00:58:51 20.6 12 22.7
003B5CE8 2019-02-22 00:47:59 20.6 12 21.8
003B5CE8 2019-02-22 00:37:07 20.6 12 21.9
003B5CE8 2019-02-22 00:26:16 20.6 12 21.8
003B5CE8 2019-02-22 00:15:24 20.6 12 22
003B5CE8 2019-02-22 00:04:32 20.6 12 22.3
003B5CE8 2019-02-21 23:53:40 20.7 12 22.3
003B5CE8 2019-02-21 23:42:48 20.7 12 22.2
003B5CE8 2019-02-21 23:31:57 20.7 12 22.2
003B5CE8 2019-02-21 23:21:06 20.7 12 21
003B5CE8 2019-02-21 23:10:14 20.7 12 21
003B5CE8 2019-02-21 22:59:23 20.7 12 20.8
003B5CE8 2019-02-21 22:48:31 20.7 12 21.8
003B5CE8 2019-02-21 22:37:39 20.7 12 21.6
003B5CE8 2019-02-21 22:26:50 20.7 12 21.6
003B5CE8 2019-02-21 22:15:55 20.7 12 21.8
003B5CE8 2019-02-21 22:05:05 20.7 12 21.8
003B5CE8 2019-02-21 21:54:14 20.7 12 22
003B5CE8 2019-02-21 21:43:21 20.7 12 22
003B5CE8 2019-02-21 21:32:29 20.8 12 21.9
003B5CE8 2019-02-21 21:21:37 20.8 12 21.9
003B5CE8 2019-02-21 21:10:46 20.8 12 22.9
003B5CE8 2019-02-21 20:59:54 20.8 12 23.6
003B5CE8 2019-02-21 20:49:03 20.8 12 24.2
003B5CE8 2019-02-21 20:38:11 20.9 12 24.8
003B5CE8 2019-02-21 20:27:20 20.8 12 25.3
003B5CE8 2019-02-21 20:16:29 20.9 12 25.7
003B5CE8 2019-02-21 20:05:38 20.9 12 25.6
003B5CE8 2019-02-21 19:54:46 20.9 12 25.6
003B5CE8 2019-02-21 19:43:55 20.9 11 25.5
003B5CE8 2019-02-21 19:33:03 20.9 12 25.3
003B5CE8 2019-02-21 19:22:12 21 11 25.4
003B5CE8 2019-02-21 19:11:20 21 11 25.2
003B5CE8 2019-02-21 19:00:29 21 11 25.3
003B5CE8 2019-02-21 18:49:38 21 11 25.3
003B5CE8 2019-02-21 18:38:46 21.1 11 25.3
003B5CE8 2019-02-21 18:27:55 21.1 11 25.3
003B5CE8 2019-02-21 18:17:03 21.2 12 25.3
003B5CE8 2019-02-21 18:05:39 21.2 12 25.3
003B5CE8 2019-02-21 17:33:23 21.4 12 25.2
003B5CE8 2019-02-21 17:01:06 21.4 13 25.1
003B5CE8 2019-02-21 16:28:49 21.2 13 25.5
003B5CE8 2019-02-21 15:56:33 20.9 12 25.5
003B5CE8 2019-02-21 14:52:01 20.6 12 25.6
003B5CE8 2019-02-21 14:19:45 20.6 12 25.6
003B5CE8 2019-02-21 13:47:27 20.6 13 25.1
003B5CE8 2019-02-21 13:15:10 20.6 13 24.5
003B5CE8 2019-02-21 12:42:52 20.5 13 23.9
003B5CE8 2019-02-21 12:10:36 20.5 13 23.2
003B5CE8 2019-02-21 11:38:18 20.5 13 22.4
003B5CE8 2019-02-21 11:06:02 20.5 14 21.3
003B5CE8 2019-02-21 10:33:45 20.5 14 21.3
003B5CE8 2019-02-21 10:01:32 20.5 14 21.5
003B5CE8 2019-02-21 09:29:12 20.5 14 21.6
003B5CE8 2019-02-21 08:56:56 20.4 15 21.6
003B5CE8 2019-02-21 08:24:40 20.4 15 21.7
003B5CE8 2019-02-21 07:52:21 20.4 16 21.7
003B5CE8 2019-02-21 07:20:05 20.4 16 21.7
003B5CE8 2019-02-21 06:47:49 20.4 16 21.6
003B5CE8 2019-02-21 06:15:29 20.5 16 21.5
003B5CE8 2019-02-21 05:43:13 20.5 17 21.5
003B5CE8 2019-02-21 05:10:59 20.5 17 20.1
003B5CE8 2019-02-21 04:38:39 20.5 17 19.9
003B5CE8 2019-02-21 04:06:22 20.5 17 19.8
003B5CE8 2019-02-21 03:34:05 20.5 17 19.8
003B5CE8 2019-02-21 03:01:49 20.6 17 21.3
003B5CE8 2019-02-21 02:29:31 20.5 17 21.3
003B5CE8 2019-02-21 01:57:13 20.6 17 21.3
003B5CE8 2019-02-21 01:24:56 20.5 17 22.3
003B5CE8 2019-02-21 00:52:39 20.6 18 23.2
003B5CE8 2019-02-21 00:20:21 20.6 18 23.2
003B5CE8 2019-02-20 23:48:07 20.6 18 23.2
003B5CE8 2019-02-20 23:15:51 20.6 18 23.9
003B5CE8 2019-02-20 22:43:35 20.6 18 24.5
003B5CE8 2019-02-20 22:11:18 20.6 18 24.6
003B5CE8 2019-02-20 21:39:02 20.6 18 24.8
003B5CE8 2019-02-20 21:06:45 20.6 18 24.9
003B5CE8 2019-02-20 20:34:28 20.6 18 24.9
003B5CE8 2019-02-20 20:02:12 20.7 18 25
003B5CE8 2019-02-20 19:29:56 20.7 18 25.1
003B5CE8 2019-02-20 18:57:40 20.7 18 25
003B5CE8 2019-02-20 18:25:23 20.7 19 25.1
003B5CE8 2019-02-20 17:53:07 20.7 19 25.3
003B5CE8 2019-02-20 17:20:50 20.8 20 25.3
003B5CE8 2019-02-20 16:48:33 20.8 20 25.5
003B5CE8 2019-02-20 16:16:17 20.8 21 25.5
003B5CE8 2019-02-20 15:44:02 20.7 21 25.6
003B5CE8 2019-02-20 15:11:02 20.7 21 25.6